| time (UTC) | temp F | wind direction | speed MPH | gust MPH | rain 1hr in | rain 24hr in | rain mn in | humidity % | barometer mb |
| 20260507014508 | 48 | 203 | 0.0 | 0.0 | 0.00 | 0.00 | 0.00 | 59 | 1012.8 |
| 20260507014502 | 48 | 203 | 0.0 | 0.0 | 0.00 | 0.00 | 0.00 | 60 | 1012.8 |
| 20260507014409 | 48 | 203 | 0.0 | 0.0 | 0.00 | 0.00 | 0.00 | 59 | 1012.4 |
| 20260507014251 | 48 | 219 | 0.0 | 0.0 | 0.00 | 0.00 | 0.00 | 62 | 1012.4 |
| 20260507014146 | 48 | 219 | 0.0 | 0.0 | 0.00 | 0.00 | 0.00 | 62 | 1012.8 |
| 20260507014040 | 48 | 219 | 0.0 | 0.0 | 0.00 | 0.00 | 0.00 | 62 | 1012.8 |
| 20260507014003 | 48 | 219 | 0.0 | 0.0 | 0.00 | 0.00 | 0.00 | 62 | 1012.8 |
| 20260507013934 | 48 | 219 | 0.0 | 0.0 | 0.00 | 0.00 | 0.00 | 62 | 1012.4 |
| 20260507013829 | 48 | 219 | 0.0 | 0.0 | 0.00 | 0.00 | 0.00 | 61 | 1012.8 |
| 20260507013722 | 48 | 219 | 0.0 | 0.0 | 0.00 | 0.00 | 0.00 | 62 | 1012.8 |
| 20260507013618 | 48 | 219 | 0.0 | 0.0 | 0.00 | 0.00 | 0.00 | 62 | 1012.4 |
| 20260507013511 | 48 | 219 | 0.0 | 0.0 | 0.00 | 0.00 | 0.00 | 62 | 1012.4 |
| 20260507013455 | 48 | 219 | 0.0 | 0.0 | 0.00 | 0.00 | 0.00 | 62 | 1012.4 |
| 20260507013406 | 48 | 219 | 0.0 | 0.0 | 0.00 | 0.00 | 0.00 | 62 | 1012.4 |
| 20260507013313 | 48 | 219 | 0.0 | 0.0 | 0.00 | 0.00 | 0.00 | 62 | 1012.8 |
| 20260507013155 | 48 | 219 | 0.0 | 0.0 | 0.00 | 0.00 | 0.00 | 63 | 1012.4 |
| 20260507013049 | 48 | 219 | 0.0 | 0.0 | 0.00 | 0.00 | 0.00 | 63 | 1012.8 |
| 20260507012944 | 48 | 219 | 0.0 | 0.0 | 0.00 | 0.00 | 0.00 | 63 | 1012.4 |
| 20260507012838 | 48 | 219 | 0.0 | 0.0 | 0.00 | 0.00 | 0.00 | 63 | 1012.4 |
| 20260507012733 | 48 | 219 | 0.0 | 0.0 | 0.00 | 0.00 | 0.00 | 63 | 1012.4 |
| 20260507012628 | 48 | 219 | 0.0 | 0.0 | 0.00 | 0.00 | 0.00 | 62 | 1012.4 |
| 20260507012522 | 48 | 219 | 0.0 | 0.0 | 0.00 | 0.00 | 0.00 | 61 | 1012.4 |
| 20260507012418 | 48 | 219 | 0.0 | 0.0 | 0.00 | 0.00 | 0.00 | 61 | 1012.4 |
| 20260507012311 | 48 | 219 | 0.0 | 0.0 | 0.00 | 0.00 | 0.00 | 61 | 1012.4 |
| 20260507012206 | 48 | 219 | 0.0 | 0.0 | 0.00 | 0.00 | 0.00 | 62 | 1012.4 |
| 20260507012059 | 48 | 219 | 0.0 | 0.0 | 0.00 | 0.00 | 0.00 | 60 | 1012.4 |
| 20260507011954 | 48 | 219 | 0.0 | 0.0 | 0.00 | 0.00 | 0.00 | 60 | 1012.8 |
| 20260507011937 | 48 | 219 | 0.0 | 0.0 | 0.00 | 0.00 | 0.00 | 59 | 1012.8 |
| 20260507011848 | 48 | 219 | 0.0 | 0.0 | 0.00 | 0.00 | 0.00 | 61 | 1012.8 |
| 20260507011743 | 48 | 219 | 0.0 | 0.0 | 0.00 | 0.00 | 0.00 | 60 | 1012.8 |
| 20260507011637 | 48 | 219 | 0.0 | 0.0 | 0.00 | 0.00 | 0.00 | 60 | 1012.8 |
| 20260507011532 | 48 | 219 | 0.0 | 0.0 | 0.00 | 0.00 | 0.00 | 58 | 1012.8 |
| 20260507011426 | 48 | 219 | 0.0 | 0.0 | 0.00 | 0.00 | 0.00 | 58 | 1012.4 |
| 20260507011321 | 48 | 219 | 0.0 | 0.0 | 0.00 | 0.00 | 0.00 | 58 | 1012.4 |
| 20260507011216 | 49 | 219 | 0.0 | 0.0 | 0.00 | 0.00 | 0.00 | 58 | 1012.8 |
| 20260507011109 | 49 | 219 | 0.0 | 0.0 | 0.00 | 0.00 | 0.00 | 57 | 1012.8 |
| 20260507011004 | 49 | 219 | 0.0 | 0.0 | 0.00 | 0.00 | 0.00 | 58 | 1012.4 |
| 20260507010926 | 49 | 219 | 0.0 | 0.0 | 0.00 | 0.00 | 0.00 | 58 | 1012.4 |
| 20260507010859 | 49 | 219 | 0.0 | 0.0 | 0.00 | 0.00 | 0.00 | 57 | 1012.4 |
| 20260507010753 | 49 | 219 | 0.0 | 0.0 | 0.00 | 0.00 | 0.00 | 56 | 1012.4 |
| 20260507010648 | 49 | 219 | 0.0 | 0.0 | 0.00 | 0.00 | 0.00 | 57 | 1012.4 |
| 20260507010542 | 49 | 219 | 0.0 | 0.0 | 0.00 | 0.00 | 0.00 | 57 | 1012.4 |
| 20260507010437 | 49 | 219 | 0.0 | 0.0 | 0.00 | 0.00 | 0.00 | 57 | 1012.4 |
| 20260507010422 | 49 | 219 | 0.0 | 0.0 | 0.00 | 0.00 | 0.00 | 56 | 1012.4 |
| 20260507010331 | 49 | 219 | 0.0 | 0.0 | 0.00 | 0.00 | 0.00 | 56 | 1012.4 |
| 20260507010226 | 49 | 219 | 0.0 | 1.0 | 0.00 | 0.00 | 0.00 | 55 | 1012.4 |
| 20260507010120 | 49 | 219 | 0.0 | 1.0 | 0.00 | 0.00 | 0.00 | 55 | 1012.4 |
| 20260507010014 | 49 | 219 | 0.0 | 1.0 | 0.00 | 0.00 | 0.00 | 56 | 1012.4 |
| 20260507005908 | 49 | 219 | 0.0 | 1.0 | 0.00 | 0.00 | 0.00 | 56 | 1012.8 |
| 20260507005803 | 49 | 219 | 0.0 | 1.0 | 0.00 | 0.00 | 0.00 | 56 | 1012.8 |
| 20260507005658 | 49 | 219 | 0.0 | 1.0 | 0.00 | 0.00 | 0.00 | 56 | 1012.4 |
| 20260507005552 | 49 | 219 | 0.0 | 1.0 | 0.00 | 0.00 | 0.00 | 56 | 1012.4 |
| 20260507005447 | 49 | 219 | 0.0 | 3.0 | 0.00 | 0.00 | 0.00 | 56 | 1012.4 |
| 20260507005410 | 49 | 219 | 0.0 | 3.0 | 0.00 | 0.00 | 0.00 | 56 | 1012.4 |
| 20260507005341 | 49 | 219 | 0.0 | 3.0 | 0.00 | 0.00 | 0.00 | 56 | 1012.4 |
| 20260507005236 | 49 | 219 | 0.0 | 3.0 | 0.00 | 0.00 | 0.00 | 56 | 1012.4 |
| 20260507005130 | 49 | 220 | 0.0 | 3.0 | 0.00 | 0.00 | 0.00 | 55 | 1012.4 |
| 20260507005025 | 49 | 220 | 0.0 | 3.0 | 0.00 | 0.00 | 0.00 | 56 | 1012.4 |
| 20260507004904 | 49 | 220 | 0.0 | 3.0 | 0.00 | 0.00 | 0.00 | 54 | 1012.4 |
| 20260507004815 | 49 | 220 | 0.0 | 3.0 | 0.00 | 0.00 | 0.00 | 55 | 1012.4 |
| 20260507004709 | 49 | 220 | 0.0 | 3.0 | 0.00 | 0.00 | 0.00 | 55 | 1012.4 |
| 20260507004604 | 49 | 220 | 0.0 | 3.0 | 0.00 | 0.00 | 0.00 | 55 | 1012.4 |
| 20260507004459 | 49 | 221 | 2.0 | 3.0 | 0.00 | 0.00 | 0.00 | 54 | 1012.4 |
| 20260507004353 | 49 | 203 | 0.0 | 1.0 | 0.00 | 0.00 | 0.00 | 55 | 1012.4 |
| 20260507004247 | 49 | 203 | 0.0 | 1.0 | 0.00 | 0.00 | 0.00 | 54 | 1012.4 |
| 20260507004142 | 49 | 203 | 0.0 | 1.0 | 0.00 | 0.00 | 0.00 | 53 | 1012.4 |
| 20260507004037 | 49 | 202 | 0.0 | 1.0 | 0.00 | 0.00 | 0.00 | 53 | 1012.4 |
| 20260507003931 | 49 | 202 | 0.0 | 1.0 | 0.00 | 0.00 | 0.00 | 53 | 1012.4 |
| 20260507003853 | 49 | 203 | 0.0 | 1.0 | 0.00 | 0.00 | 0.00 | 54 | 1012.4 |
| 20260507003825 | 49 | 203 | 0.0 | 1.0 | 0.00 | 0.00 | 0.00 | 53 | 1012.4 |
| 20260507003720 | 49 | 202 | 0.0 | 1.0 | 0.00 | 0.00 | 0.00 | 53 | 1012.4 |
| 20260507003615 | 49 | 203 | 1.0 | 1.0 | 0.00 | 0.00 | 0.00 | 54 | 1012.4 |
| 20260507003509 | 49 | 186 | 0.0 | 2.0 | 0.00 | 0.00 | 0.00 | 53 | 1012.4 |
| 20260507003404 | 49 | 247 | 0.0 | 2.0 | 0.00 | 0.00 | 0.00 | 53 | 1012.4 |
| 20260507003349 | 49 | 259 | 0.0 | 2.0 | 0.00 | 0.00 | 0.00 | 53 | 1012.4 |
| 20260507003300 | 49 | 265 | 0.0 | 2.0 | 0.00 | 0.00 | 0.00 | 54 | 1012.4 |
| 20260507003153 | 49 | 265 | 0.0 | 2.0 | 0.00 | 0.00 | 0.00 | 54 | 1012.4 |
| 20260507003058 | 49 | 274 | 0.0 | 2.0 | 0.00 | 0.00 | 0.00 | 53 | 1012.4 |
| 20260507002940 | 50 | 187 | 0.0 | 2.0 | 0.00 | 0.00 | 0.00 | 53 | 1012.4 |
| 20260507002834 | 50 | 188 | 0.0 | 2.0 | 0.00 | 0.00 | 0.00 | 53 | 1012.4 |
| 20260507002729 | 49 | 187 | 0.0 | 2.0 | 0.00 | 0.00 | 0.00 | 53 | 1012.4 |
| 20260507002625 | 49 | 217 | 2.0 | 2.0 | 0.00 | 0.00 | 0.00 | 53 | 1012.4 |
| 20260507002521 | 49 | 210 | 1.0 | 1.0 | 0.00 | 0.00 | 0.00 | 53 | 1012.4 |
| 20260507002413 | 49 | 174 | 0.0 | 1.0 | 0.00 | 0.00 | 0.00 | 54 | 1012.4 |
| 20260507002307 | 49 | 179 | 0.0 | 2.0 | 0.00 | 0.00 | 0.00 | 54 | 1012.4 |
| 20260507002202 | 49 | 179 | 0.0 | 2.0 | 0.00 | 0.00 | 0.00 | 54 | 1012.4 |
| 20260507002054 | 50 | 179 | 0.0 | 2.0 | 0.00 | 0.00 | 0.00 | 53 | 1012.4 |
| 20260507001949 | 50 | 179 | 0.0 | 2.0 | 0.00 | 0.00 | 0.00 | 54 | 1012.4 |
| 20260507001828 | 50 | 179 | 0.0 | 2.0 | 0.00 | 0.00 | 0.00 | 53 | 1012.4 |
| 20260507001737 | 50 | 180 | 0.0 | 2.0 | 0.00 | 0.00 | 0.00 | 53 | 1012.4 |
| 20260507001632 | 50 | 215 | 0.0 | 2.0 | 0.00 | 0.00 | 0.00 | 54 | 1012.4 |
| 20260507001527 | 50 | 185 | 0.0 | 2.0 | 0.00 | 0.00 | 0.00 | 53 | 1012.4 |
| 20260507001421 | 50 | 238 | 1.0 | 2.0 | 0.00 | 0.00 | 0.00 | 53 | 1012.1 |
| 20260507001322 | 50 | 206 | 0.0 | 1.0 | 0.00 | 0.00 | 0.00 | 55 | 1012.4 |
| 20260507001316 | 50 | 215 | 0.0 | 1.0 | 0.00 | 0.00 | 0.00 | 54 | 1012.4 |
| 20260507001211 | 50 | 257 | 0.0 | 1.0 | 0.00 | 0.00 | 0.00 | 53 | 1012.4 |
| 20260507001106 | 50 | 257 | 0.0 | 1.0 | 0.00 | 0.00 | 0.00 | 52 | 1012.4 |
| 20260507000958 | 50 | 257 | 0.0 | 2.0 | 0.00 | 0.00 | 0.00 | 53 | 1012.4 |
| 20260507000853 | 50 | 257 | 0.0 | 2.0 | 0.00 | 0.00 | 0.00 | 54 | 1012.4 |
| 20260507000816 | 50 | 261 | 0.0 | 2.0 | 0.00 | 0.00 | 0.00 | 53 | 1012.4 |
| 20260507000801 | 50 | 261 | 0.0 | 2.0 | 0.00 | 0.00 | 0.00 | 52 | 1012.4 |
| 20260507000642 | 50 | 196 | 0.0 | 2.0 | 0.00 | 0.00 | 0.00 | 52 | 1012.4 |
| 20260507000549 | 50 | 188 | 0.0 | 2.0 | 0.00 | 0.00 | 0.00 | 54 | 1012.4 |
| 20260507000431 | 50 | 188 | 0.0 | 4.0 | 0.00 | 0.00 | 0.00 | 53 | 1012.4 |
| 20260507000328 | 50 | 187 | 0.0 | 4.0 | 0.00 | 0.00 | 0.00 | 53 | 1012.4 |
| 20260507000313 | 50 | 208 | 0.0 | 4.0 | 0.00 | 0.00 | 0.00 | 53 | 1012.4 |
| 20260507000221 | 50 | 193 | 0.0 | 4.0 | 0.00 | 0.00 | 0.00 | 53 | 1012.4 |
| 20260507000115 | 50 | 191 | 0.0 | 4.0 | 0.00 | 0.00 | 0.00 | 51 | 1012.4 |
| 20260507000009 | 50 | 258 | 1.0 | 4.0 | 0.00 | 0.00 | 0.00 | 52 | 1012.4 |
| 20260506235903 | 50 | 257 | 0.0 | 4.0 | 0.00 | 0.00 | 0.00 | 52 | 1012.4 |
| 20260506235805 | 50 | 258 | 0.0 | 4.0 | 0.00 | 0.00 | 0.00 | 51 | 1012.4 |
| 20260506235758 | 50 | 258 | 0.0 | 4.0 | 0.00 | 0.00 | 0.00 | 51 | 1012.4 |
| 20260506235652 | 50 | 269 | 0.0 | 4.0 | 0.00 | 0.00 | 0.00 | 52 | 1012.4 |
| 20260506235549 | 50 | 295 | 0.0 | 4.0 | 0.00 | 0.00 | 0.00 | 53 | 1012.4 |
| 20260506235442 | 50 | 273 | 4.0 | 4.0 | 0.00 | 0.00 | 0.00 | 51 | 1012.4 |
| 20260506235336 | 50 | 254 | 0.0 | 2.0 | 0.00 | 0.00 | 0.00 | 53 | 1012.4 |
| 20260506235259 | 50 | 255 | 0.0 | 2.0 | 0.00 | 0.00 | 0.00 | 52 | 1012.4 |
| 20260506235231 | 50 | 228 | 0.0 | 2.0 | 0.00 | 0.00 | 0.00 | 51 | 1012.4 |
| 20260506235125 | 50 | 231 | 0.0 | 2.0 | 0.00 | 0.00 | 0.00 | 51 | 1012.1 |
| 20260506235020 | 50 | 194 | 0.0 | 2.0 | 0.00 | 0.00 | 0.00 | 52 | 1012.4 |
| 20260506234915 | 50 | 247 | 0.0 | 2.0 | 0.00 | 0.00 | 0.00 | 51 | 1012.4 |
| 20260506234809 | 50 | 195 | 0.0 | 2.0 | 0.00 | 0.00 | 0.00 | 52 | 1012.4 |
| 20260506234754 | 50 | 195 | 0.0 | 2.0 | 0.00 | 0.00 | 0.00 | 51 | 1012.4 |
| 20260506234717 | 50 | 195 | 0.0 | 2.0 | 0.00 | 0.00 | 0.00 | 52 | 1012.1 |
| 20260506234557 | 50 | 189 | 1.0 | 2.0 | 0.00 | 0.00 | 0.00 | 52 | 1012.4 |
| 20260506234452 | 50 | 238 | 1.0 | 2.0 | 0.00 | 0.00 | 0.00 | 51 | 1012.1 |
| 20260506234345 | 51 | 249 | 0.0 | 2.0 | 0.00 | 0.00 | 0.00 | 52 | 1012.4 |
| 20260506234247 | 51 | 232 | 2.0 | 2.0 | 0.00 | 0.00 | 0.00 | 50 | 1012.4 |
| 20260506234240 | 51 | 237 | 2.0 | 2.0 | 0.00 | 0.00 | 0.00 | 51 | 1012.1 |
| 20260506234135 | 51 | 175 | 0.0 | 2.0 | 0.00 | 0.00 | 0.00 | 53 | 1012.1 |
| 20260506234029 | 51 | 257 | 0.0 | 2.0 | 0.00 | 0.00 | 0.00 | 52 | 1012.4 |
| 20260506233924 | 51 | 194 | 0.0 | 2.0 | 0.00 | 0.00 | 0.00 | 52 | 1012.4 |
| 20260506233819 | 51 | 190 | 0.0 | 3.0 | 0.00 | 0.00 | 0.00 | 53 | 1012.1 |
| 20260506233741 | 51 | 190 | 0.0 | 3.0 | 0.00 | 0.00 | 0.00 | 53 | 1012.1 |
| 20260506233713 | 51 | 191 | 0.0 | 3.0 | 0.00 | 0.00 | 0.00 | 51 | 1012.1 |
| 20260506233607 | 51 | 191 | 0.0 | 3.0 | 0.00 | 0.00 | 0.00 | 51 | 1012.1 |
| 20260506233501 | 51 | 190 | 0.0 | 3.0 | 0.00 | 0.00 | 0.00 | 51 | 1012.1 |
| 20260506233355 | 51 | 188 | 0.0 | 4.0 | 0.00 | 0.00 | 0.00 | 50 | 1012.4 |
| 20260506233344 | 51 | 173 | 1.0 | 6.0 | 0.00 | 0.00 | 0.00 | 50 | 1012.1 |
| 20260506233340 | 51 | 222 | 0.0 | 6.0 | 0.00 | 0.00 | 0.00 | 50 | 1012.4 |
| 20260506233335 | 51 | 159 | 1.0 | 8.0 | 0.00 | 0.00 | 0.00 | 49 | 1012.1 |
| 20260506233331 | 51 | 203 | 1.0 | 6.0 | 0.00 | 0.00 | 0.00 | 52 | 1012.1 |
| 20260506233327 | 51 | 211 | 0.0 | 6.0 | 0.00 | 0.00 | 0.00 | 51 | 1012.1 |
| 20260506233317 | 51 | 211 | 0.0 | 6.0 | 0.00 | 0.00 | 0.00 | 51 | 1012.4 |
| 20260506233312 | 51 | 202 | 1.0 | 6.0 | 0.00 | 0.00 | 0.00 | 50 | 1012.4 |
| 20260506233053 | 51 | 212 | 1.0 | 6.0 | 0.00 | 0.00 | 0.00 | 52 | 1012.4 |
| 20260506233045 | 51 | 206 | 1.0 | 6.0 | 0.00 | 0.00 | 0.00 | 51 | 1012.1 |
| 20260506233035 | 51 | 201 | 1.0 | 6.0 | 0.00 | 0.00 | 0.00 | 50 | 1012.1 |
| 20260506232815 | 51 | 203 | 1.0 | 6.0 | 0.00 | 0.00 | 0.00 | 52 | 1012.1 |
| 20260506232805 | 51 | 187 | 1.0 | 6.0 | 0.00 | 0.00 | 0.00 | 50 | 1012.1 |
| 20260506232545 | 51 | 294 | 0.0 | 6.0 | 0.00 | 0.00 | 0.00 | 51 | 1012.4 |
| 20260506232541 | 51 | 241 | 1.0 | 6.0 | 0.00 | 0.00 | 0.00 | 51 | 1012.1 |
| 20260506232532 | 51 | 283 | 3.0 | 6.0 | 0.00 | 0.00 | 0.00 | 50 | 1012.1 |
| 20260506232510 | 51 | 275 | 4.0 | 6.0 | 0.00 | 0.00 | 0.00 | 50 | 1012.1 |
| 20260506232247 | 51 | 269 | 1.0 | 6.0 | 0.00 | 0.00 | 0.00 | 50 | 1012.4 |
| 20260506232237 | 51 | 209 | 0.0 | 6.0 | 0.00 | 0.00 | 0.00 | 51 | 1012.4 |
| 20260506232018 | 51 | 263 | 0.0 | 6.0 | 0.00 | 0.00 | 0.00 | 50 | 1012.1 |
| 20260506232010 | 51 | 241 | 0.0 | 6.0 | 0.00 | 0.00 | 0.00 | 50 | 1012.1 |
| 20260506232001 | 51 | 276 | 0.0 | 6.0 | 0.00 | 0.00 | 0.00 | 51 | 1012.1 |
| 20260506231740 | 51 | 327 | 1.0 | 6.0 | 0.00 | 0.00 | 0.00 | 50 | 1012.1 |
| 20260506231731 | 51 | 309 | 0.0 | 6.0 | 0.00 | 0.00 | 0.00 | 49 | 1012.1 |
| 20260506231507 | 51 | 271 | 1.0 | 6.0 | 0.00 | 0.00 | 0.00 | 50 | 1012.4 |
| 20260506231502 | 51 | 202 | 1.0 | 6.0 | 0.00 | 0.00 | 0.00 | 49 | 1012.1 |
| 20260506231454 | 51 | 203 | 0.0 | 6.0 | 0.00 | 0.00 | 0.00 | 49 | 1012.1 |
| 20260506231228 | 51 | 293 | 2.0 | 6.0 | 0.00 | 0.00 | 0.00 | 49 | 1012.4 |
| 20260506231207 | 51 | 252 | 0.0 | 6.0 | 0.00 | 0.00 | 0.00 | 49 | 1012.4 |
| 20260506231158 | 51 | 209 | 0.0 | 6.0 | 0.00 | 0.00 | 0.00 | 49 | 1012.1 |
| 20260506230934 | 51 | 228 | 2.0 | 3.0 | 0.00 | 0.00 | 0.00 | 49 | 1012.1 |
| 20260506230930 | 51 | 191 | 3.0 | 6.0 | 0.00 | 0.00 | 0.00 | 49 | 1012.4 |
| 20260506230921 | 51 | 193 | 4.0 | 6.0 | 0.00 | 0.00 | 0.00 | 48 | 1012.1 |
| 20260506230659 | 51 | 225 | 3.0 | 3.0 | 0.00 | 0.00 | 0.00 | 49 | 1012.1 |
| 20260506230651 | 51 | 197 | 0.0 | 3.0 | 0.00 | 0.00 | 0.00 | 49 | 1012.1 |
| 20260506230431 | 51 | 203 | 0.0 | 6.0 | 0.00 | 0.00 | 0.00 | 48 | 1012.1 |
| 20260506230422 | 51 | 256 | 0.0 | 6.0 | 0.00 | 0.00 | 0.00 | 49 | 1012.4 |
| 20260506230414 | 51 | 222 | 0.0 | 6.0 | 0.00 | 0.00 | 0.00 | 50 | 1012.4 |
| 20260506230147 | 51 | 233 | 2.0 | 6.0 | 0.00 | 0.00 | 0.00 | 49 | 1012.4 |
| 20260506230138 | 51 | 254 | 2.0 | 6.0 | 0.00 | 0.00 | 0.00 | 48 | 1012.4 |
| 20260506225915 | 51 | 284 | 2.0 | 6.0 | 0.00 | 0.00 | 0.00 | 49 | 1012.1 |
| 20260506225906 | 51 | 318 | 3.0 | 8.0 | 0.00 | 0.00 | 0.00 | 48 | 1012.1 |
| 20260506225642 | 51 | 159 | 1.0 | 8.0 | 0.00 | 0.00 | 0.00 | 49 | 1012.1 |
| 20260506225536 | 51 | 280 | 2.0 | 8.0 | 0.00 | 0.00 | 0.00 | 48 | 1012.4 |
| 20260506225430 | 51 | 272 | 4.0 | 8.0 | 0.00 | 0.00 | 0.00 | 49 | 1012.4 |
| 20260506225412 | 52 | 239 | 2.0 | 8.0 | 0.00 | 0.00 | 0.00 | 48 | 1012.1 |
| 20260506225408 | 52 | 270 | 2.0 | 8.0 | 0.00 | 0.00 | 0.00 | 47 | 1012.1 |
| 20260506225359 | 52 | 229 | 2.0 | 8.0 | 0.00 | 0.00 | 0.00 | 47 | 1012.1 |
| 20260506225113 | 52 | 243 | 2.0 | 8.0 | 0.00 | 0.00 | 0.00 | 48 | 1012.1 |
| 20260506225007 | 52 | 271 | 0.0 | 8.0 | 0.00 | 0.00 | 0.00 | 48 | 1012.1 |
| 20260506224902 | 52 | 216 | 2.0 | 8.0 | 0.00 | 0.00 | 0.00 | 47 | 1012.1 |
| 20260506224756 | 52 | 281 | 3.0 | 6.0 | 0.00 | 0.00 | 0.00 | 48 | 1012.1 |
| 20260506224651 | 52 | 220 | 1.0 | 6.0 | 0.00 | 0.00 | 0.00 | 48 | 1012.4 |
| 20260506224634 | 52 | 228 | 2.0 | 6.0 | 0.00 | 0.00 | 0.00 | 47 | 1012.1 |
| 20260506224544 | 52 | 233 | 4.0 | 6.0 | 0.00 | 0.00 | 0.00 | 48 | 1012.1 |
| 20260506224438 | 52 | 210 | 3.0 | 6.0 | 0.00 | 0.00 | 0.00 | 49 | 1012.1 |
| 20260506224333 | 52 | 228 | 0.0 | 4.0 | 0.00 | 0.00 | 0.00 | 51 | 1012.1 |
| 20260506224227 | 51 | 278 | 0.0 | 4.0 | 0.00 | 0.00 | 0.00 | 50 | 1012.1 |
| 20260506224128 | 51 | 227 | 2.0 | 4.0 | 0.00 | 0.00 | 0.00 | 50 | 1012.1 |
| 20260506224122 | 51 | 210 | 1.0 | 4.0 | 0.00 | 0.00 | 0.00 | 49 | 1012.1 |
| 20260506224015 | 51 | 235 | 2.0 | 4.0 | 0.00 | 0.00 | 0.00 | 50 | 1012.4 |
| 20260506223911 | 51 | 172 | 0.0 | 3.0 | 0.00 | 0.00 | 0.00 | 50 | 1012.4 |
| 20260506223804 | 52 | 264 | 0.0 | 3.0 | 0.00 | 0.00 | 0.00 | 49 | 1012.4 |
| 20260506223658 | 52 | 267 | 1.0 | 3.0 | 0.00 | 0.00 | 0.00 | 49 | 1012.4 |
| 20260506223621 | 52 | 265 | 0.0 | 3.0 | 0.00 | 0.00 | 0.00 | 49 | 1012.4 |
| 20260506223554 | 52 | 301 | 0.0 | 3.0 | 0.00 | 0.00 | 0.00 | 49 | 1012.4 |
| 20260506223448 | 52 | 303 | 0.0 | 3.0 | 0.00 | 0.00 | 0.00 | 48 | 1012.4 |
| 20260506223341 | 52 | 298 | 0.0 | 3.0 | 0.00 | 0.00 | 0.00 | 49 | 1012.1 |
| 20260506223238 | 52 | 296 | 1.0 | 3.0 | 0.00 | 0.00 | 0.00 | 49 | 1012.4 |
| 20260506223115 | 51 | 21 | 0.0 | 3.0 | 0.00 | 0.00 | 0.00 | 49 | 1012.1 |
| 20260506223025 | 51 | 6 | 0.0 | 3.0 | 0.00 | 0.00 | 0.00 | 49 | 1012.4 |
| 20260506222919 | 51 | 348 | 0.0 | 4.0 | 0.00 | 0.00 | 0.00 | 49 | 1012.4 |
| 20260506222814 | 51 | 323 | 0.0 | 4.0 | 0.00 | 0.00 | 0.00 | 49 | 1012.4 |
| 20260506222708 | 51 | 25 | 0.0 | 4.0 | 0.00 | 0.00 | 0.00 | 49 | 1012.4 |
| 20260506222608 | 51 | 354 | 0.0 | 4.0 | 0.00 | 0.00 | 0.00 | 49 | 1012.4 |
| 20260506222602 | 51 | 354 | 0.0 | 4.0 | 0.00 | 0.00 | 0.00 | 49 | 1012.4 |
| 20260506222457 | 51 | 270 | 1.0 | 4.0 | 0.00 | 0.00 | 0.00 | 48 | 1012.4 |
| 20260506222351 | 51 | 315 | 1.0 | 4.0 | 0.00 | 0.00 | 0.00 | 50 | 1012.4 |
| 20260506222244 | 51 | 307 | 1.0 | 4.0 | 0.00 | 0.00 | 0.00 | 50 | 1012.4 |
| 20260506222140 | 51 | 248 | 0.0 | 4.0 | 0.00 | 0.00 | 0.00 | 49 | 1012.4 |
| 20260506222102 | 51 | 247 | 0.0 | 4.0 | 0.00 | 0.00 | 0.00 | 48 | 1012.4 |
| 20260506222034 | 52 | 181 | 0.0 | 4.0 | 0.00 | 0.00 | 0.00 | 50 | 1012.4 |
| 20260506221941 | 52 | 271 | 2.0 | 2.0 | 0.00 | 0.00 | 0.00 | 50 | 1012.4 |
| 20260506221823 | 51 | 226 | 1.0 | 2.0 | 0.00 | 0.00 | 0.00 | 49 | 1012.4 |
| 20260506221717 | 52 | 125 | 1.0 | 2.0 | 0.00 | 0.00 | 0.00 | 48 | 1012.4 |
| 20260506221611 | 52 | 163 | 0.0 | 2.0 | 0.00 | 0.00 | 0.00 | 48 | 1012.4 |
| 20260506221556 | 52 | 98 | 0.0 | 2.0 | 0.00 | 0.00 | 0.00 | 48 | 1012.4 |
| 20260506221507 | 52 | 274 | 0.0 | 2.0 | 0.00 | 0.00 | 0.00 | 50 | 1012.4 |
| 20260506221401 | 52 | 309 | 0.0 | 2.0 | 0.00 | 0.00 | 0.00 | 49 | 1012.4 |
| 20260506221254 | 52 | 323 | 2.0 | 2.0 | 0.00 | 0.00 | 0.00 | 48 | 1012.4 |
| 20260506221149 | 52 | 322 | 1.0 | 2.0 | 0.00 | 0.00 | 0.00 | 48 | 1012.4 |
| 20260506221100 | 52 | 67 | 0.0 | 2.0 | 0.00 | 0.00 | 0.00 | 49 | 1012.4 |
| 20260506221056 | 52 | 115 | 0.0 | 2.0 | 0.00 | 0.00 | 0.00 | 49 | 1012.4 |
| 20260506220938 | 52 | 120 | 0.0 | 3.0 | 0.00 | 0.00 | 0.00 | 48 | 1012.4 |
| 20260506220846 | 52 | 266 | 0.0 | 3.0 | 0.00 | 0.00 | 0.00 | 47 | 1012.4 |
| 20260506220726 | 52 | 252 | 0.0 | 3.0 | 0.00 | 0.00 | 0.00 | 48 | 1012.4 |
| 20260506220621 | 52 | 214 | 0.0 | 6.0 | 0.00 | 0.00 | 0.00 | 47 | 1012.4 |
| 20260506220543 | 52 | 226 | 0.0 | 6.0 | 0.00 | 0.00 | 0.00 | 47 | 1012.4 |
| 20260506220515 | 52 | 302 | 0.0 | 6.0 | 0.00 | 0.00 | 0.00 | 49 | 1012.1 |
| 20260506220410 | 52 | 189 | 0.0 | 6.0 | 0.00 | 0.00 | 0.00 | 49 | 1012.4 |
| 20260506220304 | 52 | 188 | 0.0 | 6.0 | 0.00 | 0.00 | 0.00 | 48 | 1012.4 |
| 20260506220159 | 52 | 317 | 0.0 | 6.0 | 0.00 | 0.00 | 0.00 | 48 | 1012.4 |
| 20260506220105 | 52 | 336 | 2.0 | 6.0 | 0.00 | 0.00 | 0.00 | 48 | 1012.1 |
| 20260506220038 | 52 | 336 | 2.0 | 6.0 | 0.00 | 0.00 | 0.00 | 48 | 1012.4 |
| 20260506215947 | 52 | 273 | 2.0 | 6.0 | 0.00 | 0.00 | 0.00 | 48 | 1012.4 |
| 20260506215842 | 52 | 234 | 2.0 | 6.0 | 0.00 | 0.00 | 0.00 | 49 | 1012.4 |
| 20260506215736 | 53 | 282 | 3.0 | 6.0 | 0.00 | 0.00 | 0.00 | 46 | 1012.4 |
| 20260506215631 | 53 | 170 | 1.0 | 3.0 | 0.00 | 0.00 | 0.00 | 47 | 1012.4 |
| 20260506215531 | 52 | 323 | 0.0 | 3.0 | 0.00 | 0.00 | 0.00 | 47 | 1012.4 |
| 20260506215524 | 52 | 328 | 0.0 | 3.0 | 0.00 | 0.00 | 0.00 | 47 | 1012.4 |
| 20260506215419 | 52 | 298 | 0.0 | 3.0 | 0.00 | 0.00 | 0.00 | 49 | 1012.4 |
| 20260506215313 | 51 | 143 | 0.0 | 4.0 | 0.00 | 0.00 | 0.00 | 50 | 1012.4 |
| 20260506215208 | 51 | 7 | 0.0 | 4.0 | 0.00 | 0.00 | 0.00 | 50 | 1012.4 |
| 20260506215102 | 51 | 339 | 0.0 | 4.0 | 0.00 | 0.00 | 0.00 | 51 | 1012.4 |
| 20260506215023 | 51 | 244 | 0.0 | 4.0 | 0.00 | 0.00 | 0.00 | 50 | 1012.4 |
| 20260506214956 | 51 | 265 | 0.0 | 4.0 | 0.00 | 0.00 | 0.00 | 51 | 1012.4 |
| 20260506214850 | 51 | 329 | 0.0 | 8.0 | 0.00 | 0.00 | 0.00 | 50 | 1012.4 |
| 20260506214745 | 51 | 29 | 0.0 | 8.0 | 0.00 | 0.00 | 0.00 | 50 | 1012.4 |
| 20260506214639 | 50 | 252 | 0.0 | 8.0 | 0.00 | 0.00 | 0.00 | 52 | 1012.4 |
| 20260506214533 | 50 | 255 | 0.0 | 8.0 | 0.00 | 0.00 | 0.00 | 51 | 1012.4 |
| 20260506214518 | 50 | 255 | 0.0 | 8.0 | 0.00 | 0.00 | 0.00 | 51 | 1012.4 |
| 20260506214427 | 50 | 266 | 0.0 | 8.0 | 0.00 | 0.00 | 0.00 | 50 | 1012.4 |
| 20260506214322 | 50 | 313 | 2.0 | 8.0 | 0.00 | 0.00 | 0.00 | 50 | 1012.4 |
| 20260506214216 | 50 | 332 | 2.0 | 8.0 | 0.00 | 0.00 | 0.00 | 50 | 1012.4 |
| 20260506214110 | 51 | 330 | 4.0 | 8.0 | 0.00 | 0.00 | 0.00 | 50 | 1012.4 |
| 20260506214011 | 51 | 355 | 1.0 | 8.0 | 0.00 | 0.00 | 0.00 | 50 | 1012.4 |
| 20260506214004 | 51 | 68 | 3.0 | 8.0 | 0.00 | 0.00 | 0.00 | 50 | 1012.4 |
| 20260506213858 | 51 | 345 | 1.0 | 6.0 | 0.00 | 0.00 | 0.00 | 49 | 1012.1 |
| 20260506213753 | 51 | 316 | 0.0 | 6.0 | 0.00 | 0.00 | 0.00 | 50 | 1012.1 |
| 20260506213647 | 51 | 265 | 0.0 | 6.0 | 0.00 | 0.00 | 0.00 | 50 | 1012.4 |
| 20260506213542 | 51 | 309 | 1.0 | 6.0 | 0.00 | 0.00 | 0.00 | 49 | 1012.4 |
| 20260506213504 | 51 | 329 | 4.0 | 6.0 | 0.00 | 0.00 | 0.00 | 50 | 1012.4 |
| 20260506213436 | 51 | 345 | 1.0 | 6.0 | 0.00 | 0.00 | 0.00 | 51 | 1012.4 |
| 20260506213330 | 51 | 338 | 3.0 | 6.0 | 0.00 | 0.00 | 0.00 | 50 | 1012.4 |
| 20260506213226 | 51 | 343 | 1.0 | 6.0 | 0.00 | 0.00 | 0.00 | 49 | 1012.4 |
| 20260506213117 | 52 | 344 | 0.0 | 6.0 | 0.00 | 0.00 | 0.00 | 51 | 1012.4 |
| 20260506213012 | 52 | 225 | 3.0 | 6.0 | 0.00 | 0.00 | 0.00 | 49 | 1012.4 |
| 20260506212956 | 52 | 225 | 3.0 | 6.0 | 0.00 | 0.00 | 0.00 | 49 | 1012.4 |
| 20260506212906 | 51 | 193 | 1.0 | 6.0 | 0.00 | 0.00 | 0.00 | 50 | 1012.1 |
| 20260506212759 | 51 | 193 | 0.0 | 6.0 | 0.00 | 0.00 | 0.00 | 51 | 1012.4 |
| 20260506212655 | 51 | 211 | 1.0 | 6.0 | 0.00 | 0.00 | 0.00 | 49 | 1012.4 |
| 20260506212548 | 51 | 197 | 1.0 | 4.0 | 0.00 | 0.00 | 0.00 | 50 | 1012.4 |
| 20260506212449 | 51 | 214 | 0.0 | 4.0 | 0.00 | 0.00 | 0.00 | 50 | 1012.1 |
| 20260506212443 | 51 | 226 | 1.0 | 4.0 | 0.00 | 0.00 | 0.00 | 50 | 1012.1 |
| 20260506212338 | 51 | 183 | 0.0 | 4.0 | 0.00 | 0.00 | 0.00 | 49 | 1012.4 |
| 20260506212232 | 51 | 220 | 3.0 | 4.0 | 0.00 | 0.00 | 0.00 | 49 | 1012.4 |
| 20260506212126 | 51 | 199 | 0.0 | 6.0 | 0.00 | 0.00 | 0.00 | 49 | 1012.1 |
| 20260506212019 | 51 | 223 | 0.0 | 6.0 | 0.00 | 0.00 | 0.00 | 49 | 1012.1 |
| 20260506211941 | 51 | 232 | 0.0 | 6.0 | 0.00 | 0.00 | 0.00 | 49 | 1012.1 |
| 20260506211913 | 51 | 219 | 0.0 | 6.0 | 0.00 | 0.00 | 0.00 | 49 | 1012.4 |
| 20260506211808 | 51 | 273 | 4.0 | 6.0 | 0.00 | 0.00 | 0.00 | 49 | 1012.1 |
| 20260506211702 | 50 | 244 | 0.0 | 6.0 | 0.00 | 0.00 | 0.00 | 51 | 1012.4 |
| 20260506211557 | 51 | 176 | 0.0 | 6.0 | 0.00 | 0.00 | 0.00 | 50 | 1012.1 |
| 20260506211451 | 51 | 147 | 0.0 | 6.0 | 0.00 | 0.00 | 0.00 | 49 | 1012.1 |
| 20260506211435 | 51 | 197 | 0.0 | 6.0 | 0.00 | 0.00 | 0.00 | 49 | 1012.1 |
| 20260506211345 | 51 | 142 | 4.0 | 6.0 | 0.00 | 0.00 | 0.00 | 49 | 1012.1 |
| 20260506211239 | 52 | 237 | 0.0 | 6.0 | 0.00 | 0.00 | 0.00 | 49 | 1012.4 |
| 20260506211132 | 52 | 177 | 2.0 | 6.0 | 0.00 | 0.00 | 0.00 | 49 | 1012.4 |
| 20260506211027 | 51 | 229 | 1.0 | 3.0 | 0.00 | 0.00 | 0.00 | 49 | 1012.4 |
| 20260506210926 | 51 | 235 | 1.0 | 3.0 | 0.00 | 0.00 | 0.00 | 50 | 1012.4 |
| 20260506210920 | 51 | 249 | 1.0 | 3.0 | 0.00 | 0.00 | 0.00 | 50 | 1012.4 |
| 20260506210815 | 51 | 225 | 2.0 | 3.0 | 0.00 | 0.00 | 0.00 | 52 | 1012.4 |
| 20260506210709 | 51 | 143 | 1.0 | 3.0 | 0.00 | 0.00 | 0.00 | 50 | 1012.4 |
| 20260506210604 | 52 | 259 | 1.0 | 4.0 | 0.00 | 0.00 | 0.00 | 49 | 1012.4 |
| 20260506210457 | 51 | 183 | 0.0 | 4.0 | 0.00 | 0.00 | 0.00 | 50 | 1012.4 |
| 20260506210420 | 51 | 213 | 0.0 | 4.0 | 0.00 | 0.00 | 0.00 | 50 | 1012.4 |
| 20260506210353 | 51 | 220 | 0.0 | 4.0 | 0.00 | 0.00 | 0.00 | 51 | 1012.4 |
| 20260506210247 | 52 | 348 | 0.0 | 4.0 | 0.00 | 0.00 | 0.00 | 50 | 1012.1 |
| 20260506210141 | 52 | 353 | 0.0 | 4.0 | 0.00 | 0.00 | 0.00 | 51 | 1012.4 |
| 20260506210048 | 51 | 300 | 0.0 | 4.0 | 0.00 | 0.00 | 0.00 | 51 | 1012.4 |
| 20260506205914 | 51 | 327 | 0.0 | 4.0 | 0.00 | 0.00 | 0.00 | 50 | 1012.1 |
| 20260506205824 | 51 | 39 | 0.0 | 4.0 | 0.00 | 0.00 | 0.00 | 52 | 1012.4 |
| 20260506205719 | 50 | 38 | 0.0 | 4.0 | 0.00 | 0.00 | 0.00 | 51 | 1012.4 |
| 20260506205613 | 51 | 342 | 3.0 | 3.0 | 0.00 | 0.00 | 0.00 | 52 | 1012.4 |
| 20260506205508 | 50 | 214 | 0.0 | 3.0 | 0.00 | 0.00 | 0.00 | 52 | 1012.4 |
| 20260506205408 | 50 | 251 | 0.0 | 3.0 | 0.00 | 0.00 | 0.00 | 52 | 1012.1 |
| 20260506205402 | 50 | 251 | 0.0 | 3.0 | 0.00 | 0.00 | 0.00 | 52 | 1012.1 |
| 20260506205256 | 50 | 175 | 0.0 | 3.0 | 0.00 | 0.00 | 0.00 | 51 | 1012.4 |
| 20260506205151 | 50 | 214 | 1.0 | 3.0 | 0.00 | 0.00 | 0.00 | 51 | 1012.4 |
| 20260506205044 | 50 | 259 | 2.0 | 4.0 | 0.00 | 0.00 | 0.00 | 52 | 1012.1 |
| 20260506204939 | 50 | 160 | 0.0 | 4.0 | 0.00 | 0.00 | 0.00 | 51 | 1012.4 |
| 20260506204900 | 50 | 13 | 0.0 | 4.0 | 0.00 | 0.00 | 0.00 | 51 | 1012.4 |
| 20260506204833 | 50 | 312 | 0.0 | 4.0 | 0.00 | 0.00 | 0.00 | 52 | 1012.4 |
| 20260506204727 | 51 | 328 | 0.0 | 6.0 | 0.00 | 0.00 | 0.00 | 50 | 1012.4 |
| 20260506204622 | 51 | 326 | 3.0 | 6.0 | 0.00 | 0.00 | 0.00 | 50 | 1012.4 |
| 20260506204516 | 51 | 287 | 0.0 | 6.0 | 0.00 | 0.00 | 0.00 | 51 | 1012.4 |
| 20260506204411 | 51 | 245 | 0.0 | 6.0 | 0.00 | 0.00 | 0.00 | 51 | 1012.4 |
| 20260506204354 | 51 | 336 | 1.0 | 6.0 | 0.00 | 0.00 | 0.00 | 51 | 1012.4 |
| 20260506204304 | 51 | 351 | 0.0 | 6.0 | 0.00 | 0.00 | 0.00 | 51 | 1012.4 |
| 20260506204159 | 51 | 326 | 2.0 | 6.0 | 0.00 | 0.00 | 0.00 | 51 | 1012.4 |
| 20260506204053 | 51 | 320 | 0.0 | 6.0 | 0.00 | 0.00 | 0.00 | 50 | 1012.4 |
| 20260506203947 | 51 | 342 | 0.0 | 6.0 | 0.00 | 0.00 | 0.00 | 51 | 1012.4 |
| 20260506203841 | 51 | 219 | 0.0 | 6.0 | 0.00 | 0.00 | 0.00 | 50 | 1012.1 |
| 20260506203736 | 51 | 249 | 1.0 | 3.0 | 0.00 | 0.00 | 0.00 | 51 | 1012.4 |
| 20260506203631 | 51 | 326 | 0.0 | 3.0 | 0.00 | 0.00 | 0.00 | 51 | 1012.1 |
| 20260506203525 | 51 | 63 | 0.0 | 3.0 | 0.00 | 0.00 | 0.00 | 51 | 1012.1 |
| 20260506203420 | 51 | 309 | 0.0 | 3.0 | 0.00 | 0.00 | 0.00 | 51 | 1012.1 |
| 20260506203341 | 51 | 315 | 2.0 | 3.0 | 0.00 | 0.00 | 0.00 | 50 | 1012.1 |
| 20260506203314 | 51 | 276 | 1.0 | 6.0 | 0.00 | 0.00 | 0.00 | 49 | 1012.1 |
| 20260506203210 | 51 | 238 | 1.0 | 6.0 | 0.00 | 0.00 | 0.00 | 51 | 1012.1 |
| 20260506203102 | 51 | 321 | 0.0 | 6.0 | 0.00 | 0.00 | 0.00 | 50 | 1012.1 |
| 20260506202957 | 51 | 325 | 2.0 | 6.0 | 0.00 | 0.00 | 0.00 | 51 | 1012.1 |
| 20260506202836 | 51 | 3 | 0.0 | 6.0 | 0.00 | 0.00 | 0.00 | 50 | 1012.1 |
| 20260506202745 | 51 | 309 | 1.0 | 6.0 | 0.00 | 0.00 | 0.00 | 50 | 1012.1 |
| 20260506202638 | 51 | 310 | 2.0 | 6.0 | 0.00 | 0.00 | 0.00 | 50 | 1012.1 |
| 20260506202533 | 51 | 223 | 1.0 | 6.0 | 0.00 | 0.00 | 0.00 | 51 | 1012.1 |
| 20260506202427 | 51 | 341 | 2.0 | 6.0 | 0.00 | 0.00 | 0.00 | 50 | 1012.1 |
| 20260506202322 | 51 | 38 | 0.0 | 4.0 | 0.00 | 0.00 | 0.00 | 50 | 1012.4 |
| 20260506202216 | 52 | 184 | 0.0 | 6.0 | 0.00 | 0.00 | 0.00 | 50 | 1012.4 |
| 20260506202110 | 52 | 259 | 1.0 | 6.0 | 0.00 | 0.00 | 0.00 | 50 | 1012.1 |
| 20260506202004 | 53 | 216 | 2.0 | 6.0 | 0.00 | 0.00 | 0.00 | 49 | 1012.1 |
| 20260506201859 | 53 | 319 | 1.0 | 6.0 | 0.00 | 0.00 | 0.00 | 50 | 1012.1 |
| 20260506201822 | 53 | 19 | 2.0 | 6.0 | 0.00 | 0.00 | 0.00 | 51 | 1012.4 |
| 20260506201752 | 53 | 76 | 1.0 | 6.0 | 0.00 | 0.00 | 0.00 | 51 | 1012.4 |
| 20260506201648 | 53 | 349 | 4.0 | 6.0 | 0.00 | 0.00 | 0.00 | 49 | 1012.4 |
| 20260506201542 | 53 | 248 | 0.0 | 6.0 | 0.00 | 0.00 | 0.00 | 48 | 1012.4 |
| 20260506201437 | 53 | 249 | 0.0 | 6.0 | 0.00 | 0.00 | 0.00 | 49 | 1012.4 |
| 20260506201330 | 53 | 265 | 4.0 | 7.0 | 0.00 | 0.00 | 0.00 | 50 | 1012.1 |
| 20260506201315 | 53 | 109 | 0.0 | 7.0 | 0.00 | 0.00 | 0.00 | 52 | 1012.1 |
| 20260506201225 | 53 | 276 | 0.0 | 7.0 | 0.00 | 0.00 | 0.00 | 49 | 1012.1 |
| 20260506201120 | 53 | 270 | 0.0 | 7.0 | 0.00 | 0.00 | 0.00 | 47 | 1012.4 |
| 20260506201013 | 53 | 137 | 0.0 | 7.0 | 0.00 | 0.00 | 0.00 | 48 | 1012.4 |
| 20260506200908 | 51 | 253 | 1.0 | 7.0 | 0.00 | 0.00 | 0.00 | 51 | 1012.4 |
| 20260506200809 | 51 | 299 | 0.0 | 7.0 | 0.00 | 0.00 | 0.00 | 50 | 1012.4 |
| 20260506200803 | 51 | 312 | 0.0 | 7.0 | 0.00 | 0.00 | 0.00 | 50 | 1012.4 |
| 20260506200657 | 51 | 282 | 2.0 | 7.0 | 0.00 | 0.00 | 0.00 | 49 | 1012.4 |
| 20260506200552 | 51 | 265 | 2.0 | 7.0 | 0.00 | 0.00 | 0.00 | 48 | 1012.4 |
| 20260506200445 | 51 | 254 | 2.0 | 7.0 | 0.00 | 0.00 | 0.00 | 49 | 1012.4 |
| 20260506200339 | 51 | 336 | 3.0 | 7.0 | 0.00 | 0.00 | 0.00 | 49 | 1012.1 |
| 20260506200302 | 51 | 305 | 1.0 | 7.0 | 0.00 | 0.00 | 0.00 | 49 | 1012.1 |
| 20260506200247 | 51 | 310 | 2.0 | 7.0 | 0.00 | 0.00 | 0.00 | 49 | 1012.4 |
| 20260506200141 | 51 | 189 | 0.0 | 7.0 | 0.00 | 0.00 | 0.00 | 49 | 1012.4 |
| 20260506200023 | 51 | 291 | 3.0 | 7.0 | 0.00 | 0.00 | 0.00 | 49 | 1012.1 |
| 20260506195917 | 51 | 310 | 0.0 | 7.0 | 0.00 | 0.00 | 0.00 | 51 | 1012.4 |
| 20260506195811 | 51 | 298 | 1.0 | 7.0 | 0.00 | 0.00 | 0.00 | 51 | 1012.1 |
| 20260506195756 | 51 | 298 | 1.0 | 7.0 | 0.00 | 0.00 | 0.00 | 51 | 1012.1 |
| 20260506195707 | 51 | 319 | 4.0 | 7.0 | 0.00 | 0.00 | 0.00 | 50 | 1012.4 |
| 20260506195559 | 51 | 21 | 0.0 | 6.0 | 0.00 | 0.00 | 0.00 | 51 | 1012.4 |
| 20260506195454 | 51 | 325 | 0.0 | 7.0 | 0.00 | 0.00 | 0.00 | 49 | 1012.4 |
| 20260506195348 | 51 | 38 | 1.0 | 7.0 | 0.00 | 0.00 | 0.00 | 50 | 1012.1 |
| 20260506195249 | 51 | 30 | 1.0 | 7.0 | 0.00 | 0.00 | 0.00 | 50 | 1012.4 |
| 20260506195244 | 51 | 335 | 2.0 | 7.0 | 0.00 | 0.00 | 0.00 | 51 | 1012.4 |
| 20260506195138 | 51 | 357 | 1.0 | 7.0 | 0.00 | 0.00 | 0.00 | 51 | 1012.1 |
| 20260506195031 | 52 | 319 | 2.0 | 7.0 | 0.00 | 0.00 | 0.00 | 51 | 1012.1 |
| 20260506194926 | 52 | 266 | 2.0 | 7.0 | 0.00 | 0.00 | 0.00 | 49 | 1012.4 |
| 20260506194820 | 53 | 358 | 0.0 | 7.0 | 0.00 | 0.00 | 0.00 | 50 | 1012.4 |
| 20260506194743 | 53 | 316 | 3.0 | 7.0 | 0.00 | 0.00 | 0.00 | 49 | 1012.4 |
| 20260506194714 | 53 | 316 | 1.0 | 7.0 | 0.00 | 0.00 | 0.00 | 50 | 1012.4 |
| 20260506194609 | 52 | 29 | 3.0 | 7.0 | 0.00 | 0.00 | 0.00 | 50 | 1012.1 |
| 20260506194503 | 51 | 313 | 0.0 | 4.0 | 0.00 | 0.00 | 0.00 | 50 | 1012.4 |
| 20260506194358 | 51 | 323 | 0.0 | 4.0 | 0.00 | 0.00 | 0.00 | 50 | 1012.1 |
| 20260506194252 | 51 | 357 | 0.0 | 4.0 | 0.00 | 0.00 | 0.00 | 50 | 1012.4 |
| 20260506194237 | 51 | 300 | 0.0 | 4.0 | 0.00 | 0.00 | 0.00 | 50 | 1012.4 |
| 20260506194147 | 51 | 331 | 0.0 | 4.0 | 0.00 | 0.00 | 0.00 | 51 | 1012.4 |
| 20260506194040 | 52 | 311 | 0.0 | 4.0 | 0.00 | 0.00 | 0.00 | 49 | 1012.4 |
| 20260506193935 | 53 | 359 | 0.0 | 4.0 | 0.00 | 0.00 | 0.00 | 49 | 1012.4 |
| 20260506193829 | 53 | 304 | 0.0 | 7.0 | 0.00 | 0.00 | 0.00 | 49 | 1012.4 |
| 20260506193730 | 53 | 284 | 2.0 | 7.0 | 0.00 | 0.00 | 0.00 | 48 | 1012.4 |
| 20260506193724 | 53 | 350 | 2.0 | 7.0 | 0.00 | 0.00 | 0.00 | 49 | 1012.4 |
| 20260506193619 | 53 | 314 | 3.0 | 7.0 | 0.00 | 0.00 | 0.00 | 47 | 1012.4 |
| 20260506193512 | 53 | 37 | 2.0 | 7.0 | 0.00 | 0.00 | 0.00 | 49 | 1012.4 |
| 20260506193406 | 52 | 224 | 1.0 | 7.0 | 0.00 | 0.00 | 0.00 | 49 | 1012.4 |
| 20260506193301 | 52 | 345 | 1.0 | 7.0 | 0.00 | 0.00 | 0.00 | 48 | 1012.4 |
| 20260506193224 | 52 | 306 | 0.0 | 7.0 | 0.00 | 0.00 | 0.00 | 47 | 1012.4 |
| 20260506193157 | 52 | 334 | 3.0 | 7.0 | 0.00 | 0.00 | 0.00 | 48 | 1012.4 |
| 20260506193050 | 52 | 63 | 1.0 | 7.0 | 0.00 | 0.00 | 0.00 | 48 | 1012.4 |
| 20260506192945 | 53 | 60 | 0.0 | 7.0 | 0.00 | 0.00 | 0.00 | 48 | 1012.4 |
| 20260506192839 | 52 | 322 | 6.0 | 8.0 | 0.00 | 0.00 | 0.00 | 47 | 1012.4 |
| 20260506192717 | 51 | 356 | 1.0 | 8.0 | 0.00 | 0.00 | 0.00 | 50 | 1012.4 |
| 20260506192628 | 51 | 2 | 1.0 | 8.0 | 0.00 | 0.00 | 0.00 | 50 | 1012.4 |
| 20260506192520 | 51 | 42 | 1.0 | 8.0 | 0.00 | 0.00 | 0.00 | 50 | 1012.4 |
| 20260506192414 | 50 | 302 | 3.0 | 8.0 | 0.00 | 0.00 | 0.00 | 51 | 1012.8 |
| 20260506192308 | 50 | 358 | 2.0 | 8.0 | 0.00 | 0.00 | 0.00 | 51 | 1012.4 |
| 20260506192209 | 50 | 242 | 5.0 | 8.0 | 0.00 | 0.00 | 0.00 | 50 | 1012.4 |
| 20260506192203 | 50 | 355 | 4.0 | 8.0 | 0.00 | 0.00 | 0.00 | 50 | 1012.4 |
| 20260506192057 | 50 | 296 | 4.0 | 8.0 | 0.00 | 0.00 | 0.00 | 50 | 1012.4 |
| 20260506191951 | 51 | 341 | 3.0 | 8.0 | 0.00 | 0.00 | 0.00 | 51 | 1012.4 |
| 20260506191846 | 51 | 6 | 3.0 | 9.0 | 0.00 | 0.00 | 0.00 | 50 | 1012.4 |
| 20260506191740 | 51 | 359 | 2.0 | 9.0 | 0.00 | 0.00 | 0.00 | 51 | 1012.4 |
| 20260506191702 | 51 | 289 | 1.0 | 9.0 | 0.00 | 0.00 | 0.00 | 51 | 1012.4 |
| 20260506191634 | 51 | 314 | 1.0 | 9.0 | 0.00 | 0.00 | 0.00 | 50 | 1012.4 |
| 20260506191527 | 51 | 319 | 5.0 | 9.0 | 0.00 | 0.00 | 0.00 | 50 | 1012.4 |
| 20260506191422 | 51 | 341 | 3.0 | 9.0 | 0.00 | 0.00 | 0.00 | 50 | 1012.4 |
| 20260506191329 | 51 | 181 | 4.0 | 9.0 | 0.00 | 0.00 | 0.00 | 51 | 1012.4 |
| 20260506191211 | 51 | 285 | 1.0 | 9.0 | 0.00 | 0.00 | 0.00 | 52 | 1012.4 |
| 20260506191155 | 51 | 323 | 2.0 | 9.0 | 0.00 | 0.00 | 0.00 | 51 | 1012.4 |
| 20260506191118 | 51 | 302 | 1.0 | 9.0 | 0.00 | 0.00 | 0.00 | 50 | 1012.4 |
| 20260506190959 | 50 | 352 | 0.0 | 9.0 | 0.00 | 0.00 | 0.00 | 52 | 1012.1 |
| 20260506190854 | 50 | 55 | 0.0 | 8.0 | 0.00 | 0.00 | 0.00 | 52 | 1012.4 |
| 20260506190749 | 50 | 347 | 0.0 | 8.0 | 0.00 | 0.00 | 0.00 | 52 | 1012.4 |
| 20260506190650 | 50 | 339 | 3.0 | 8.0 | 0.00 | 0.00 | 0.00 | 51 | 1012.1 |
| 20260506190643 | 50 | 15 | 0.0 | 8.0 | 0.00 | 0.00 | 0.00 | 52 | 1012.1 |
| 20260506190537 | 51 | 333 | 7.0 | 8.0 | 0.00 | 0.00 | 0.00 | 50 | 1012.4 |
| 20260506190444 | 51 | 334 | 2.0 | 4.0 | 0.00 | 0.00 | 0.00 | 51 | 1012.4 |
| 20260506190328 | 51 | 320 | 2.0 | 4.0 | 0.00 | 0.00 | 0.00 | 50 | 1012.1 |
| 20260506190220 | 51 | 300 | 0.0 | 4.0 | 0.00 | 0.00 | 0.00 | 51 | 1012.4 |
| 20260506190144 | 51 | 262 | 0.0 | 4.0 | 0.00 | 0.00 | 0.00 | 49 | 1012.4 |
| 20260506190114 | 51 | 286 | 0.0 | 4.0 | 0.00 | 0.00 | 0.00 | 50 | 1012.4 |
| 20260506190009 | 51 | 247 | 1.0 | 4.0 | 0.00 | 0.00 | 0.00 | 51 | 1012.4 |
| 20260506185903 | 51 | 112 | 1.0 | 7.0 | 0.00 | 0.00 | 0.00 | 51 | 1012.1 |
| 20260506185757 | 51 | 265 | 2.0 | 7.0 | 0.00 | 0.00 | 0.00 | 50 | 1012.4 |
| 20260506185652 | 51 | 265 | 1.0 | 7.0 | 0.00 | 0.00 | 0.00 | 50 | 1012.4 |
| 20260506185636 | 51 | 265 | 1.0 | 7.0 | 0.00 | 0.00 | 0.00 | 50 | 1012.1 |
| 20260506185545 | 51 | 309 | 0.0 | 7.0 | 0.00 | 0.00 | 0.00 | 51 | 1012.1 |
| 20260506185440 | 50 | 294 | 0.0 | 7.0 | 0.00 | 0.00 | 0.00 | 52 | 1012.4 |
| 20260506185334 | 50 | 245 | 0.0 | 7.0 | 0.00 | 0.00 | 0.00 | 52 | 1012.4 |
| 20260506185229 | 51 | 262 | 0.0 | 7.0 | 0.00 | 0.00 | 0.00 | 51 | 1012.4 |
| 20260506185129 | 51 | 278 | 0.0 | 7.0 | 0.00 | 0.00 | 0.00 | 52 | 1012.4 |
| 20260506185123 | 51 | 277 | 0.0 | 7.0 | 0.00 | 0.00 | 0.00 | 52 | 1012.4 |
| 20260506185017 | 51 | 288 | 3.0 | 7.0 | 0.00 | 0.00 | 0.00 | 51 | 1012.1 |
| 20260506184911 | 51 | 305 | 1.0 | 4.0 | 0.00 | 0.00 | 0.00 | 50 | 1012.4 |
| 20260506184805 | 51 | 252 | 1.0 | 4.0 | 0.00 | 0.00 | 0.00 | 51 | 1012.4 |
| 20260506184659 | 51 | 318 | 0.0 | 4.0 | 0.00 | 0.00 | 0.00 | 51 | 1012.4 |
| 20260506184621 | 50 | 289 | 1.0 | 4.0 | 0.00 | 0.00 | 0.00 | 52 | 1012.1 |
| 20260506184553 | 50 | 286 | 1.0 | 4.0 | 0.00 | 0.00 | 0.00 | 52 | 1012.1 |
| 20260506184447 | 51 | 303 | 2.0 | 4.0 | 0.00 | 0.00 | 0.00 | 50 | 1012.4 |
| 20260506184341 | 51 | 330 | 2.0 | 4.0 | 0.00 | 0.00 | 0.00 | 50 | 1012.4 |
| 20260506184236 | 51 | 147 | 1.0 | 3.0 | 0.00 | 0.00 | 0.00 | 52 | 1012.4 |
| 20260506184130 | 51 | 329 | 0.0 | 3.0 | 0.00 | 0.00 | 0.00 | 52 | 1012.4 |
| 20260506184115 | 51 | 327 | 0.0 | 3.0 | 0.00 | 0.00 | 0.00 | 51 | 1012.4 |
| 20260506184024 | 51 | 320 | 0.0 | 3.0 | 0.00 | 0.00 | 0.00 | 52 | 1012.4 |
| 20260506183918 | 51 | 225 | 0.0 | 3.0 | 0.00 | 0.00 | 0.00 | 54 | 1012.4 |
| 20260506183813 | 50 | 151 | 1.0 | 3.0 | 0.00 | 0.00 | 0.00 | 54 | 1012.1 |
| 20260506183707 | 50 | 333 | 1.0 | 3.0 | 0.00 | 0.00 | 0.00 | 52 | 1012.4 |
| 20260506183608 | 50 | 269 | 0.0 | 3.0 | 0.00 | 0.00 | 0.00 | 53 | 1012.4 |
| 20260506183601 | 50 | 328 | 1.0 | 3.0 | 0.00 | 0.00 | 0.00 | 53 | 1012.4 |
| 20260506183454 | 50 | 348 | 2.0 | 3.0 | 0.00 | 0.00 | 0.00 | 53 | 1012.4 |
| 20260506183348 | 50 | 338 | 3.0 | 3.0 | 0.00 | 0.00 | 0.00 | 52 | 1012.4 |
| 20260506183243 | 51 | 332 | 2.0 | 3.0 | 0.00 | 0.00 | 0.00 | 51 | 1012.1 |
| 20260506183138 | 51 | 332 | 3.0 | 3.0 | 0.00 | 0.00 | 0.00 | 53 | 1012.4 |
| 20260506183100 | 51 | 327 | 2.0 | 3.0 | 0.00 | 0.00 | 0.00 | 51 | 1012.4 |
| 20260506183032 | 52 | 288 | 1.0 | 3.0 | 0.00 | 0.00 | 0.00 | 51 | 1012.4 |
| 20260506182927 | 52 | 256 | 2.0 | 3.0 | 0.00 | 0.00 | 0.00 | 51 | 1012.4 |
| 20260506182821 | 51 | 146 | 0.0 | 4.0 | 0.00 | 0.00 | 0.00 | 52 | 1012.4 |
| 20260506182716 | 51 | 332 | 1.0 | 6.0 | 0.00 | 0.00 | 0.00 | 50 | 1012.4 |
| 20260506182609 | 51 | 310 | 1.0 | 6.0 | 0.00 | 0.00 | 0.00 | 52 | 1012.4 |
| 20260506182554 | 51 | 310 | 1.0 | 6.0 | 0.00 | 0.00 | 0.00 | 52 | 1012.4 |
| 20260506182504 | 51 | 323 | 2.0 | 6.0 | 0.00 | 0.00 | 0.00 | 51 | 1012.4 |
| 20260506182358 | 51 | 209 | 0.0 | 6.0 | 0.00 | 0.00 | 0.00 | 52 | 1012.4 |
| 20260506182253 | 51 | 128 | 0.0 | 6.0 | 0.00 | 0.00 | 0.00 | 52 | 1012.4 |
| 20260506182148 | 51 | 266 | 0.0 | 6.0 | 0.00 | 0.00 | 0.00 | 53 | 1012.4 |
| 20260506182042 | 51 | 266 | 2.0 | 6.0 | 0.00 | 0.00 | 0.00 | 54 | 1012.4 |
| 20260506181936 | 51 | 261 | 1.0 | 6.0 | 0.00 | 0.00 | 0.00 | 53 | 1012.4 |
| 20260506181831 | 51 | 203 | 2.0 | 6.0 | 0.00 | 0.00 | 0.00 | 53 | 1012.4 |
| 20260506181725 | 51 | 273 | 2.0 | 3.0 | 0.00 | 0.00 | 0.00 | 53 | 1012.4 |
| 20260506181618 | 51 | 256 | 2.0 | 6.0 | 0.00 | 0.00 | 0.00 | 52 | 1012.4 |
| 20260506181541 | 51 | 303 | 2.0 | 6.0 | 0.00 | 0.00 | 0.00 | 52 | 1012.4 |
| 20260506181513 | 52 | 330 | 0.0 | 6.0 | 0.00 | 0.00 | 0.00 | 51 | 1012.4 |
| 20260506181406 | 53 | 312 | 0.0 | 6.0 | 0.00 | 0.00 | 0.00 | 50 | 1012.4 |
| 20260506181301 | 53 | 323 | 0.0 | 6.0 | 0.00 | 0.00 | 0.00 | 53 | 1012.4 |
| 20260506181155 | 52 | 3 | 0.0 | 6.0 | 0.00 | 0.00 | 0.00 | 52 | 1012.4 |
| 20260506181050 | 52 | 243 | 2.0 | 6.0 | 0.00 | 0.00 | 0.00 | 55 | 1012.4 |
| 20260506181034 | 51 | 235 | 1.0 | 6.0 | 0.00 | 0.00 | 0.00 | 54 | 1012.4 |
| 20260506180944 | 51 | 139 | 1.0 | 6.0 | 0.00 | 0.00 | 0.00 | 55 | 1012.4 |
| 20260506180839 | 51 | 99 | 0.0 | 6.0 | 0.00 | 0.00 | 0.00 | 54 | 1012.4 |
| 20260506180733 | 52 | 343 | 0.0 | 6.0 | 0.00 | 0.00 | 0.00 | 53 | 1012.4 |
| 20260506180627 | 52 | 328 | 4.0 | 7.0 | 0.00 | 0.00 | 0.00 | 53 | 1012.4 |
| 20260506180526 | 51 | 84 | 0.0 | 7.0 | 0.00 | 0.00 | 0.00 | 55 | 1012.4 |
| 20260506180521 | 51 | 64 | 1.0 | 7.0 | 0.00 | 0.00 | 0.00 | 55 | 1012.4 |
| 20260506180414 | 51 | 37 | 1.0 | 7.0 | 0.00 | 0.00 | 0.00 | 54 | 1012.4 |
| 20260506180310 | 50 | 349 | 0.0 | 7.0 | 0.00 | 0.00 | 0.00 | 54 | 1012.4 |
| 20260506180203 | 50 | 351 | 1.0 | 7.0 | 0.00 | 0.00 | 0.00 | 55 | 1012.4 |
| 20260506180111 | 50 | 32 | 2.0 | 7.0 | 0.00 | 0.00 | 0.00 | 55 | 1012.4 |
| 20260506180020 | 50 | 19 | 0.0 | 7.0 | 0.00 | 0.00 | 0.00 | 56 | 1012.8 |
| 20260506175952 | 49 | 343 | 0.0 | 7.0 | 0.00 | 0.00 | 0.00 | 57 | 1012.8 |
| 20260506175847 | 49 | 299 | 1.0 | 7.0 | 0.00 | 0.00 | 0.00 | 57 | 1012.8 |
| 20260506175741 | 49 | 311 | 1.0 | 7.0 | 0.00 | 0.00 | 0.00 | 56 | 1012.8 |
| 20260506175635 | 49 | 337 | 3.0 | 7.0 | 0.00 | 0.00 | 0.00 | 58 | 1012.8 |
| 20260506175514 | 49 | 33 | 0.0 | 7.0 | 0.00 | 0.00 | 0.00 | 57 | 1012.8 |
| 20260506175425 | 49 | 285 | 2.0 | 7.0 | 0.00 | 0.00 | 0.00 | 57 | 1012.8 |
| 20260506175319 | 49 | 297 | 0.0 | 7.0 | 0.00 | 0.00 | 0.00 | 56 | 1012.4 |
| 20260506175212 | 49 | 338 | 0.0 | 7.0 | 0.00 | 0.00 | 0.00 | 56 | 1012.8 |
| 20260506175106 | 49 | 330 | 2.0 | 9.0 | 0.00 | 0.00 | 0.00 | 57 | 1012.8 |
| 20260506175007 | 49 | 281 | 2.0 | 9.0 | 0.00 | 0.00 | 0.00 | 56 | 1012.8 |
| 20260506175001 | 49 | 281 | 2.0 | 9.0 | 0.00 | 0.00 | 0.00 | 56 | 1012.8 |
| 20260506174854 | 49 | 336 | 2.0 | 9.0 | 0.00 | 0.00 | 0.00 | 57 | 1012.8 |
| 20260506174749 | 49 | 298 | 2.0 | 9.0 | 0.00 | 0.00 | 0.00 | 56 | 1012.8 |
| 20260506174643 | 49 | 319 | 3.0 | 9.0 | 0.00 | 0.00 | 0.00 | 56 | 1012.8 |
| 20260506174538 | 49 | 332 | 0.0 | 9.0 | 0.00 | 0.00 | 0.00 | 55 | 1012.8 |
| 20260506174500 | 49 | 305 | 0.0 | 9.0 | 0.00 | 0.00 | 0.00 | 56 | 1012.8 |
| 20260506174432 | 49 | 14 | 0.0 | 9.0 | 0.00 | 0.00 | 0.00 | 56 | 1012.8 |
| 20260506174327 | 49 | 289 | 0.0 | 9.0 | 0.00 | 0.00 | 0.00 | 55 | 1012.4 |
| 20260506174221 | 49 | 340 | 2.0 | 9.0 | 0.00 | 0.00 | 0.00 | 55 | 1012.4 |
| 20260506174116 | 49 | 347 | 3.0 | 8.0 | 0.00 | 0.00 | 0.00 | 55 | 1012.8 |
| 20260506174011 | 49 | 236 | 1.0 | 8.0 | 0.00 | 0.00 | 0.00 | 55 | 1012.8 |
| 20260506173954 | 49 | 288 | 1.0 | 8.0 | 0.00 | 0.00 | 0.00 | 54 | 1012.8 |
| 20260506173905 | 49 | 3 | 4.0 | 8.0 | 0.00 | 0.00 | 0.00 | 54 | 1012.8 |
| 20260506173759 | 49 | 323 | 4.0 | 8.0 | 0.00 | 0.00 | 0.00 | 54 | 1012.8 |
| 20260506173653 | 49 | 356 | 3.0 | 8.0 | 0.00 | 0.00 | 0.00 | 56 | 1012.4 |
| 20260506173548 | 49 | 330 | 0.0 | 8.0 | 0.00 | 0.00 | 0.00 | 54 | 1012.4 |
| 20260506173449 | 49 | 328 | 4.0 | 8.0 | 0.00 | 0.00 | 0.00 | 53 | 1012.8 |
| 20260506173442 | 50 | 339 | 2.0 | 7.0 | 0.00 | 0.00 | 0.00 | 53 | 1012.8 |
| 20260506173336 | 50 | 338 | 2.0 | 7.0 | 0.00 | 0.00 | 0.00 | 54 | 1012.4 |
| 20260506173230 | 51 | 343 | 1.0 | 7.0 | 0.00 | 0.00 | 0.00 | 52 | 1012.4 |
| 20260506173126 | 51 | 71 | 0.0 | 7.0 | 0.00 | 0.00 | 0.00 | 52 | 1012.8 |
| 20260506173019 | 52 | 246 | 0.0 | 7.0 | 0.00 | 0.00 | 0.00 | 52 | 1012.4 |
| 20260506172941 | 52 | 299 | 4.0 | 7.0 | 0.00 | 0.00 | 0.00 | 51 | 1012.4 |
| 20260506172913 | 52 | 310 | 0.0 | 7.0 | 0.00 | 0.00 | 0.00 | 52 | 1012.8 |
| 20260506172808 | 52 | 233 | 1.0 | 7.0 | 0.00 | 0.00 | 0.00 | 53 | 1012.4 |
| 20260506172702 | 51 | 312 | 2.0 | 7.0 | 0.00 | 0.00 | 0.00 | 55 | 1012.8 |
| 20260506172556 | 50 | 298 | 0.0 | 7.0 | 0.00 | 0.00 | 0.00 | 54 | 1012.4 |
| 20260506172450 | 50 | 349 | 0.0 | 7.0 | 0.00 | 0.00 | 0.00 | 55 | 1012.8 |
| 20260506172434 | 50 | 349 | 0.0 | 7.0 | 0.00 | 0.00 | 0.00 | 55 | 1012.4 |
| 20260506172344 | 50 | 252 | 0.0 | 7.0 | 0.00 | 0.00 | 0.00 | 54 | 1012.4 |
| 20260506172239 | 50 | 289 | 0.0 | 7.0 | 0.00 | 0.00 | 0.00 | 54 | 1012.8 |
| 20260506172132 | 50 | 261 | 1.0 | 7.0 | 0.00 | 0.00 | 0.00 | 54 | 1012.4 |
| 20260506172106 | 49 | 342 | 1.0 | 7.0 | 0.00 | 0.00 | 0.00 | 54 | 1012.4 |
| 20260506172102 | 50 | 296 | 3.0 | 4.0 | 0.00 | 0.00 | 0.00 | 53 | 1012.4 |
| 20260506172057 | 51 | 302 | 2.0 | 7.0 | 0.00 | 0.00 | 0.00 | 51 | 1012.4 |
| 20260506172053 | 51 | 357 | 2.0 | 10.0 | 0.00 | 0.00 | 0.00 | 49 | 1012.4 |
| 20260506172047 | 50 | 298 | 1.0 | 7.0 | 0.00 | 0.00 | 0.00 | 54 | 1012.4 |
| 20260506172032 | 50 | 312 | 1.0 | 7.0 | 0.00 | 0.00 | 0.00 | 55 | 1012.4 |
| 20260506172023 | 50 | 291 | 1.0 | 7.0 | 0.00 | 0.00 | 0.00 | 54 | 1012.4 |
| 20260506171804 | 51 | 320 | 2.0 | 6.0 | 0.00 | 0.00 | 0.00 | 53 | 1012.8 |
| 20260506171755 | 51 | 325 | 1.0 | 6.0 | 0.00 | 0.00 | 0.00 | 53 | 1012.4 |
| 20260506171532 | 51 | 73 | 1.0 | 6.0 | 0.00 | 0.00 | 0.00 | 53 | 1012.4 |
| 20260506171509 | 51 | 316 | 2.0 | 6.0 | 0.00 | 0.00 | 0.00 | 53 | 1012.4 |
| 20260506171504 | 51 | 342 | 2.0 | 6.0 | 0.00 | 0.00 | 0.00 | 53 | 1012.4 |
| 20260506171456 | 51 | 61 | 0.0 | 6.0 | 0.00 | 0.00 | 0.00 | 53 | 1012.4 |
| 20260506171231 | 51 | 323 | 0.0 | 6.0 | 0.00 | 0.00 | 0.00 | 55 | 1012.4 |
| 20260506171222 | 50 | 14 | 1.0 | 7.0 | 0.00 | 0.00 | 0.00 | 56 | 1012.4 |
| 20260506170957 | 50 | 308 | 2.0 | 7.0 | 0.00 | 0.00 | 0.00 | 55 | 1012.4 |
| 20260506170946 | 49 | 310 | 1.0 | 7.0 | 0.00 | 0.00 | 0.00 | 57 | 1012.4 |
| 20260506170942 | 49 | 276 | 1.0 | 7.0 | 0.00 | 0.00 | 0.00 | 56 | 1012.4 |
| 20260506170933 | 49 | 9 | 0.0 | 7.0 | 0.00 | 0.00 | 0.00 | 55 | 1012.4 |
| 20260506170710 | 49 | 342 | 0.0 | 7.0 | 0.00 | 0.00 | 0.00 | 54 | 1012.4 |
| 20260506170701 | 49 | 348 | 0.0 | 7.0 | 0.00 | 0.00 | 0.00 | 54 | 1012.4 |
| 20260506170436 | 49 | 330 | 1.0 | 8.0 | 0.00 | 0.00 | 0.00 | 54 | 1012.4 |
| 20260506170428 | 49 | 288 | 4.0 | 8.0 | 0.00 | 0.00 | 0.00 | 54 | 1012.4 |
| 20260506170159 | 50 | 247 | 3.0 | 8.0 | 0.00 | 0.00 | 0.00 | 53 | 1012.8 |
| 20260506170151 | 50 | 348 | 4.0 | 8.0 | 0.00 | 0.00 | 0.00 | 53 | 1012.4 |
| 20260506170142 | 50 | 354 | 0.0 | 8.0 | 0.00 | 0.00 | 0.00 | 53 | 1012.4 |
| 20260506165916 | 50 | 297 | 0.0 | 8.0 | 0.00 | 0.00 | 0.00 | 53 | 1012.4 |
| 20260506165912 | 50 | 250 | 1.0 | 8.0 | 0.00 | 0.00 | 0.00 | 53 | 1012.4 |
| 20260506165903 | 50 | 317 | 2.0 | 8.0 | 0.00 | 0.00 | 0.00 | 53 | 1012.8 |
| 20260506165639 | 49 | 356 | 0.0 | 8.0 | 0.00 | 0.00 | 0.00 | 53 | 1012.4 |
| 20260506165630 | 49 | 352 | 2.0 | 8.0 | 0.00 | 0.00 | 0.00 | 53 | 1012.4 |
| 20260506165621 | 50 | 296 | 3.0 | 4.0 | 0.00 | 0.00 | 0.00 | 53 | 1012.4 |
| 20260506165359 | 50 | 304 | 1.0 | 4.0 | 0.00 | 0.00 | 0.00 | 54 | 1012.4 |
| 20260506165351 | 50 | 238 | 0.0 | 4.0 | 0.00 | 0.00 | 0.00 | 54 | 1012.4 |
| 20260506165131 | 50 | 71 | 1.0 | 3.0 | 0.00 | 0.00 | 0.00 | 54 | 1012.4 |
| 20260506165122 | 50 | 297 | 0.0 | 3.0 | 0.00 | 0.00 | 0.00 | 53 | 1012.4 |
| 20260506164901 | 50 | 212 | 0.0 | 7.0 | 0.00 | 0.00 | 0.00 | 54 | 1012.4 |
| 20260506164857 | 50 | 227 | 1.0 | 7.0 | 0.00 | 0.00 | 0.00 | 54 | 1012.4 |
| 20260506164848 | 50 | 254 | 0.0 | 7.0 | 0.00 | 0.00 | 0.00 | 53 | 1012.4 |
| 20260506164839 | 51 | 198 | 0.0 | 7.0 | 0.00 | 0.00 | 0.00 | 52 | 1012.4 |
| 20260506164616 | 51 | 340 | 0.0 | 7.0 | 0.00 | 0.00 | 0.00 | 50 | 1012.4 |
| 20260506164607 | 51 | 270 | 0.0 | 7.0 | 0.00 | 0.00 | 0.00 | 52 | 1012.4 |
| 20260506164345 | 51 | 310 | 2.0 | 7.0 | 0.00 | 0.00 | 0.00 | 49 | 1012.4 |
| 20260506164336 | 51 | 278 | 0.0 | 10.0 | 0.00 | 0.00 | 0.00 | 52 | 1012.4 |
| 20260506164113 | 51 | 303 | 0.0 | 10.0 | 0.00 | 0.00 | 0.00 | 49 | 1012.4 |
| 20260506164104 | 51 | 317 | 0.0 | 10.0 | 0.00 | 0.00 | 0.00 | 50 | 1012.4 |
| 20260506164056 | 51 | 328 | 3.0 | 10.0 | 0.00 | 0.00 | 0.00 | 50 | 1012.4 |
| 20260506163749 | 51 | 45 | 2.0 | 10.0 | 0.00 | 0.00 | 0.00 | 50 | 1012.4 |
| 20260506163643 | 51 | 340 | 1.0 | 10.0 | 0.00 | 0.00 | 0.00 | 50 | 1012.4 |
| 20260506163537 | 51 | 314 | 2.0 | 10.0 | 0.00 | 0.00 | 0.00 | 51 | 1012.4 |
| 20260506163432 | 51 | 344 | 0.0 | 10.0 | 0.00 | 0.00 | 0.00 | 52 | 1012.4 |
| 20260506163327 | 51 | 322 | 0.0 | 10.0 | 0.00 | 0.00 | 0.00 | 55 | 1012.4 |
| 20260506163221 | 52 | 225 | 0.0 | 6.0 | 0.00 | 0.00 | 0.00 | 52 | 1012.4 |
| 20260506163115 | 53 | 261 | 3.0 | 6.0 | 0.00 | 0.00 | 0.00 | 52 | 1012.4 |
| 20260506163009 | 52 | 285 | 1.0 | 6.0 | 0.00 | 0.00 | 0.00 | 52 | 1012.4 |
| 20260506162904 | 52 | 304 | 1.0 | 6.0 | 0.00 | 0.00 | 0.00 | 51 | 1012.8 |
| 20260506162826 | 52 | 341 | 0.0 | 6.0 | 0.00 | 0.00 | 0.00 | 51 | 1012.4 |
| 20260506162758 | 52 | 175 | 2.0 | 6.0 | 0.00 | 0.00 | 0.00 | 51 | 1012.4 |
| 20260506162652 | 52 | 263 | 3.0 | 6.0 | 0.00 | 0.00 | 0.00 | 53 | 1012.4 |
| 20260506162547 | 52 | 317 | 0.0 | 6.0 | 0.00 | 0.00 | 0.00 | 52 | 1012.4 |
| 20260506162441 | 52 | 353 | 0.0 | 6.0 | 0.00 | 0.00 | 0.00 | 51 | 1012.4 |
| 20260506162336 | 51 | 309 | 2.0 | 6.0 | 0.00 | 0.00 | 0.00 | 51 | 1012.4 |
| 20260506162319 | 51 | 48 | 2.0 | 6.0 | 0.00 | 0.00 | 0.00 | 52 | 1012.4 |
| 20260506162229 | 51 | 268 | 0.0 | 6.0 | 0.00 | 0.00 | 0.00 | 53 | 1012.4 |
| 20260506162136 | 51 | 325 | 0.0 | 6.0 | 0.00 | 0.00 | 0.00 | 53 | 1012.4 |
| 20260506162021 | 51 | 246 | 1.0 | 6.0 | 0.00 | 0.00 | 0.00 | 53 | 1012.4 |
| 20260506161925 | 51 | 247 | 2.0 | 9.0 | 0.00 | 0.00 | 0.00 | 56 | 1012.4 |
| 20260506161813 | 51 | 248 | 0.0 | 9.0 | 0.00 | 0.00 | 0.00 | 54 | 1012.4 |
| 20260506161807 | 51 | 268 | 4.0 | 9.0 | 0.00 | 0.00 | 0.00 | 53 | 1012.4 |
| 20260506161704 | 51 | 80 | 2.0 | 9.0 | 0.00 | 0.00 | 0.00 | 53 | 1012.4 |
| 20260506161555 | 51 | 285 | 1.0 | 10.0 | 0.00 | 0.00 | 0.00 | 53 | 1012.4 |
| 20260506161451 | 51 | 221 | 2.0 | 10.0 | 0.00 | 0.00 | 0.00 | 53 | 1012.4 |
| 20260506161345 | 50 | 205 | 3.0 | 10.0 | 0.00 | 0.00 | 0.00 | 52 | 1012.4 |
| 20260506161306 | 50 | 225 | 3.0 | 10.0 | 0.00 | 0.00 | 0.00 | 52 | 1012.4 |
| 20260506161239 | 50 | 174 | 4.0 | 10.0 | 0.00 | 0.00 | 0.00 | 53 | 1012.4 |
| 20260506161146 | 50 | 271 | 2.0 | 10.0 | 0.00 | 0.00 | 0.00 | 53 | 1012.4 |
| 20260506161041 | 51 | 255 | 0.0 | 10.0 | 0.00 | 0.00 | 0.00 | 52 | 1012.1 |
| 20260506160922 | 51 | 300 | 4.0 | 10.0 | 0.00 | 0.00 | 0.00 | 53 | 1012.4 |
| 20260506160800 | 51 | 297 | 0.0 | 10.0 | 0.00 | 0.00 | 0.00 | 53 | 1012.4 |
| 20260506160710 | 52 | 293 | 3.0 | 10.0 | 0.00 | 0.00 | 0.00 | 54 | 1012.4 |
| 20260506160606 | 52 | 258 | 6.0 | 9.0 | 0.00 | 0.00 | 0.00 | 50 | 1012.4 |
| 20260506160459 | 52 | 242 | 2.0 | 6.0 | 0.00 | 0.00 | 0.00 | 53 | 1012.4 |
| 20260506160354 | 52 | 205 | 2.0 | 6.0 | 0.00 | 0.00 | 0.00 | 52 | 1012.4 |
| 20260506160248 | 52 | 330 | 4.0 | 6.0 | 0.00 | 0.00 | 0.00 | 53 | 1012.4 |
| 20260506160156 | 51 | 168 | 1.0 | 4.0 | 0.00 | 0.00 | 0.00 | 53 | 1012.1 |
| 20260506160050 | 52 | 16 | 1.0 | 4.0 | 0.00 | 0.00 | 0.00 | 53 | 1012.4 |
| 20260506155931 | 52 | 325 | 2.0 | 4.0 | 0.00 | 0.00 | 0.00 | 52 | 1012.4 |
| 20260506155825 | 52 | 355 | 2.0 | 4.0 | 0.00 | 0.00 | 0.00 | 56 | 1012.1 |
| 20260506155748 | 52 | 79 | 0.0 | 4.0 | 0.00 | 0.00 | 0.00 | 56 | 1012.1 |
| 20260506155719 | 52 | 204 | 1.0 | 4.0 | 0.00 | 0.00 | 0.00 | 55 | 1012.1 |
| 20260506155614 | 52 | 245 | 2.0 | 3.0 | 0.00 | 0.00 | 0.00 | 55 | 1012.4 |
| 20260506155508 | 52 | 225 | 2.0 | 6.0 | 0.00 | 0.00 | 0.00 | 56 | 1012.4 |
| 20260506155403 | 52 | 283 | 2.0 | 6.0 | 0.00 | 0.00 | 0.00 | 56 | 1012.4 |
| 20260506155256 | 52 | 272 | 1.0 | 6.0 | 0.00 | 0.00 | 0.00 | 56 | 1012.4 |
| 20260506155241 | 52 | 303 | 1.0 | 6.0 | 0.00 | 0.00 | 0.00 | 56 | 1012.4 |
| 20260506155151 | 52 | 333 | 2.0 | 6.0 | 0.00 | 0.00 | 0.00 | 54 | 1012.4 |
| 20260506155044 | 51 | 75 | 2.0 | 6.0 | 0.00 | 0.00 | 0.00 | 55 | 1012.1 |
| 20260506154940 | 51 | 142 | 0.0 | 6.0 | 0.00 | 0.00 | 0.00 | 56 | 1012.1 |
| 20260506154835 | 51 | 101 | 1.0 | 6.0 | 0.00 | 0.00 | 0.00 | 55 | 1012.1 |
| 20260506154735 | 51 | 46 | 3.0 | 6.0 | 0.00 | 0.00 | 0.00 | 54 | 1012.1 |
| 20260506154728 | 51 | 14 | 2.0 | 6.0 | 0.00 | 0.00 | 0.00 | 56 | 1012.1 |
| 20260506154622 | 51 | 80 | 0.0 | 6.0 | 0.00 | 0.00 | 0.00 | 56 | 1012.4 |
| 20260506154517 | 51 | 287 | 2.0 | 6.0 | 0.00 | 0.00 | 0.00 | 55 | 1012.1 |
| 20260506154412 | 50 | 221 | 1.0 | 4.0 | 0.00 | 0.00 | 0.00 | 58 | 1012.4 |
| 20260506154305 | 49 | 131 | 0.0 | 4.0 | 0.00 | 0.00 | 0.00 | 59 | 1012.4 |
| 20260506154228 | 49 | 126 | 1.0 | 4.0 | 0.00 | 0.00 | 0.00 | 59 | 1012.1 |
| 20260506154200 | 49 | 120 | 2.0 | 4.0 | 0.00 | 0.00 | 0.00 | 58 | 1012.1 |
| 20260506154055 | 50 | 151 | 2.0 | 4.0 | 0.00 | 0.00 | 0.00 | 57 | 1012.1 |
| 20260506153948 | 50 | 109 | 0.0 | 4.0 | 0.00 | 0.00 | 0.00 | 57 | 1012.4 |
| 20260506153843 | 50 | 331 | 2.0 | 4.0 | 0.00 | 0.00 | 0.00 | 59 | 1012.1 |
| 20260506153722 | 50 | 311 | 2.0 | 4.0 | 0.00 | 0.00 | 0.00 | 58 | 1012.1 |
| 20260506153631 | 50 | 349 | 3.0 | 4.0 | 0.00 | 0.00 | 0.00 | 57 | 1012.1 |
| 20260506153526 | 50 | 63 | 1.0 | 4.0 | 0.00 | 0.00 | 0.00 | 58 | 1012.4 |
| 20260506153420 | 50 | 334 | 1.0 | 4.0 | 0.00 | 0.00 | 0.00 | 58 | 1012.4 |
| 20260506153314 | 50 | 335 | 3.0 | 4.0 | 0.00 | 0.00 | 0.00 | 57 | 1012.1 |
| 20260506153209 | 50 | 246 | 2.0 | 7.0 | 0.00 | 0.00 | 0.00 | 59 | 1012.1 |
| 20260506153103 | 50 | 226 | 1.0 | 7.0 | 0.00 | 0.00 | 0.00 | 59 | 1012.4 |
| 20260506152958 | 50 | 327 | 1.0 | 7.0 | 0.00 | 0.00 | 0.00 | 58 | 1012.1 |
| 20260506152852 | 50 | 229 | 0.0 | 7.0 | 0.00 | 0.00 | 0.00 | 58 | 1012.1 |
| 20260506152746 | 49 | 227 | 2.0 | 7.0 | 0.00 | 0.00 | 0.00 | 57 | 1012.1 |
| 20260506152709 | 49 | 196 | 1.0 | 7.0 | 0.00 | 0.00 | 0.00 | 58 | 1012.4 |
| 20260506152641 | 49 | 203 | 1.0 | 7.0 | 0.00 | 0.00 | 0.00 | 58 | 1012.4 |
| 20260506152535 | 49 | 125 | 2.0 | 7.0 | 0.00 | 0.00 | 0.00 | 58 | 1012.1 |
| 20260506152429 | 49 | 200 | 2.0 | 7.0 | 0.00 | 0.00 | 0.00 | 59 | 1012.1 |
| 20260506152324 | 50 | 265 | 1.0 | 7.0 | 0.00 | 0.00 | 0.00 | 57 | 1012.4 |
| 20260506152218 | 50 | 350 | 5.0 | 7.0 | 0.00 | 0.00 | 0.00 | 57 | 1012.1 |
| 20260506152203 | 50 | 357 | 0.0 | 4.0 | 0.00 | 0.00 | 0.00 | 57 | 1012.1 |
| 20260506152113 | 50 | 303 | 0.0 | 4.0 | 0.00 | 0.00 | 0.00 | 58 | 1012.1 |
| 20260506152007 | 50 | 334 | 3.0 | 4.0 | 0.00 | 0.00 | 0.00 | 57 | 1012.1 |
| 20260506151901 | 50 | 87 | 2.0 | 3.0 | 0.00 | 0.00 | 0.00 | 58 | 1012.4 |
| 20260506151756 | 50 | 54 | 1.0 | 4.0 | 0.00 | 0.00 | 0.00 | 58 | 1012.4 |
| 20260506151657 | 50 | 325 | 1.0 | 4.0 | 0.00 | 0.00 | 0.00 | 58 | 1012.4 |
| 20260506151650 | 50 | 229 | 0.0 | 4.0 | 0.00 | 0.00 | 0.00 | 58 | 1012.4 |
| 20260506151543 | 50 | 281 | 1.0 | 4.0 | 0.00 | 0.00 | 0.00 | 60 | 1012.1 |
| 20260506151438 | 51 | 39 | 2.0 | 4.0 | 0.00 | 0.00 | 0.00 | 56 | 1012.1 |
| 20260506151332 | 51 | 36 | 3.0 | 4.0 | 0.00 | 0.00 | 0.00 | 56 | 1012.1 |
| 20260506151227 | 51 | 31 | 0.0 | 6.0 | 0.00 | 0.00 | 0.00 | 55 | 1012.4 |
| 20260506151150 | 51 | 38 | 0.0 | 6.0 | 0.00 | 0.00 | 0.00 | 56 | 1012.4 |
| 20260506151122 | 51 | 3 | 1.0 | 6.0 | 0.00 | 0.00 | 0.00 | 55 | 1012.4 |
| 20260506151016 | 52 | 145 | 0.0 | 6.0 | 0.00 | 0.00 | 0.00 | 55 | 1012.4 |
| 20260506150910 | 53 | 211 | 1.0 | 6.0 | 0.00 | 0.00 | 0.00 | 55 | 1012.1 |
| 20260506150805 | 53 | 356 | 2.0 | 6.0 | 0.00 | 0.00 | 0.00 | 53 | 1012.4 |
| 20260506150644 | 52 | 60 | 0.0 | 6.0 | 0.00 | 0.00 | 0.00 | 55 | 1012.1 |
| 20260506150554 | 52 | 52 | 0.0 | 6.0 | 0.00 | 0.00 | 0.00 | 56 | 1012.4 |
| 20260506150448 | 53 | 69 | 2.0 | 6.0 | 0.00 | 0.00 | 0.00 | 55 | 1012.4 |
| 20260506150342 | 53 | 355 | 2.0 | 6.0 | 0.00 | 0.00 | 0.00 | 53 | 1012.4 |
| 20260506150236 | 52 | 357 | 1.0 | 2.0 | 0.00 | 0.00 | 0.00 | 55 | 1011.8 |
| 20260506150137 | 52 | 176 | 0.0 | 4.0 | 0.00 | 0.00 | 0.00 | 56 | 1012.1 |
| 20260506150131 | 52 | 239 | 0.0 | 4.0 | 0.00 | 0.00 | 0.00 | 56 | 1012.1 |
| 20260506150025 | 51 | 209 | 0.0 | 4.0 | 0.00 | 0.00 | 0.00 | 56 | 1012.1 |
| 20260506145919 | 51 | 137 | 1.0 | 4.0 | 0.00 | 0.00 | 0.00 | 55 | 1012.4 |
| 20260506145812 | 50 | 68 | 1.0 | 4.0 | 0.00 | 0.00 | 0.00 | 58 | 1012.1 |
| 20260506145707 | 50 | 65 | 1.0 | 4.0 | 0.00 | 0.00 | 0.00 | 58 | 1012.1 |
| 20260506145629 | 50 | 30 | 2.0 | 4.0 | 0.00 | 0.00 | 0.00 | 59 | 1012.1 |
| 20260506145602 | 50 | 34 | 1.0 | 4.0 | 0.00 | 0.00 | 0.00 | 58 | 1012.1 |
| 20260506145455 | 49 | 203 | 0.0 | 4.0 | 0.00 | 0.00 | 0.00 | 59 | 1012.1 |
| 20260506145348 | 47 | 71 | 1.0 | 4.0 | 0.00 | 0.00 | 0.00 | 60 | 1012.4 |
| 20260506145242 | 47 | 115 | 0.0 | 4.0 | 0.00 | 0.00 | 0.00 | 61 | 1012.1 |
| 20260506145138 | 48 | 148 | 0.0 | 3.0 | 0.00 | 0.00 | 0.00 | 59 | 1012.1 |
| 20260506145121 | 48 | 156 | 0.0 | 3.0 | 0.00 | 0.00 | 0.00 | 59 | 1012.1 |
| 20260506145031 | 48 | 311 | 2.0 | 3.0 | 0.00 | 0.00 | 0.00 | 59 | 1012.1 |
| 20260506144926 | 48 | 290 | 2.0 | 4.0 | 0.00 | 0.00 | 0.00 | 59 | 1012.1 |
| 20260506144821 | 49 | 272 | 1.0 | 4.0 | 0.00 | 0.00 | 0.00 | 57 | 1012.1 |
| 20260506144715 | 49 | 357 | 2.0 | 4.0 | 0.00 | 0.00 | 0.00 | 55 | 1011.8 |
| 20260506144615 | 49 | 35 | 1.0 | 4.0 | 0.00 | 0.00 | 0.00 | 57 | 1011.8 |
| 20260506144609 | 49 | 72 | 1.0 | 4.0 | 0.00 | 0.00 | 0.00 | 58 | 1011.8 |
| 20260506144504 | 48 | 96 | 0.0 | 4.0 | 0.00 | 0.00 | 0.00 | 59 | 1011.8 |
| 20260506144358 | 48 | 11 | 0.0 | 4.0 | 0.00 | 0.00 | 0.00 | 59 | 1011.8 |
| 20260506144252 | 47 | 111 | 0.0 | 4.0 | 0.00 | 0.00 | 0.00 | 59 | 1012.1 |
| 20260506144147 | 47 | 186 | 0.0 | 4.0 | 0.00 | 0.00 | 0.00 | 59 | 1012.1 |
| 20260506144109 | 46 | 329 | 1.0 | 4.0 | 0.00 | 0.00 | 0.00 | 60 | 1011.8 |
| 20260506144042 | 46 | 44 | 1.0 | 4.0 | 0.00 | 0.00 | 0.00 | 60 | 1012.1 |
| 20260506143934 | 46 | 70 | 0.0 | 4.0 | 0.00 | 0.00 | 0.00 | 61 | 1012.1 |
| 20260506143843 | 48 | 330 | 0.0 | 4.0 | 0.00 | 0.00 | 0.00 | 60 | 1011.8 |
| 20260506143723 | 49 | 323 | 2.0 | 4.0 | 0.00 | 0.00 | 0.00 | 58 | 1012.1 |
| 20260506143602 | 49 | 340 | 0.0 | 4.0 | 0.00 | 0.00 | 0.00 | 58 | 1012.1 |
| 20260506143513 | 49 | 15 | 0.0 | 4.0 | 0.00 | 0.00 | 0.00 | 58 | 1012.1 |
| 20260506143407 | 48 | 40 | 2.0 | 4.0 | 0.00 | 0.00 | 0.00 | 59 | 1012.1 |
| 20260506143302 | 48 | 7 | 2.0 | 4.0 | 0.00 | 0.00 | 0.00 | 58 | 1011.8 |
| 20260506143156 | 48 | 335 | 2.0 | 4.0 | 0.00 | 0.00 | 0.00 | 59 | 1012.1 |
| 20260506143050 | 48 | 344 | 0.0 | 6.0 | 0.00 | 0.00 | 0.00 | 58 | 1011.8 |
| 20260506142944 | 47 | 84 | 0.0 | 6.0 | 0.00 | 0.00 | 0.00 | 59 | 1011.8 |
| 20260506142839 | 47 | 43 | 1.0 | 6.0 | 0.00 | 0.00 | 0.00 | 60 | 1012.1 |
| 20260506142733 | 46 | 30 | 1.0 | 6.0 | 0.00 | 0.00 | 0.00 | 61 | 1012.1 |
| 20260506142627 | 46 | 63 | 2.0 | 6.0 | 0.00 | 0.00 | 0.00 | 62 | 1012.1 |
| 20260506142550 | 46 | 301 | 2.0 | 6.0 | 0.00 | 0.00 | 0.00 | 61 | 1012.1 |
| 20260506142521 | 46 | 336 | 3.0 | 6.0 | 0.00 | 0.00 | 0.00 | 61 | 1012.1 |
| 20260506142415 | 47 | 246 | 2.0 | 6.0 | 0.00 | 0.00 | 0.00 | 61 | 1012.1 |
| 20260506142310 | 48 | 50 | 0.0 | 6.0 | 0.00 | 0.00 | 0.00 | 60 | 1012.1 |
| 20260506142204 | 48 | 21 | 4.0 | 6.0 | 0.00 | 0.00 | 0.00 | 58 | 1012.1 |
| 20260506142043 | 48 | 307 | 1.0 | 4.0 | 0.00 | 0.00 | 0.00 | 60 | 1012.1 |
| 20260506141954 | 49 | 98 | 0.0 | 4.0 | 0.00 | 0.00 | 0.00 | 60 | 1011.8 |
| 20260506141848 | 49 | 337 | 0.0 | 4.0 | 0.00 | 0.00 | 0.00 | 58 | 1011.8 |
| 20260506141741 | 49 | 170 | 0.0 | 4.0 | 0.00 | 0.00 | 0.00 | 60 | 1012.1 |
| 20260506141637 | 49 | 124 | 1.0 | 4.0 | 0.00 | 0.00 | 0.00 | 57 | 1011.8 |
| 20260506141535 | 49 | 148 | 0.0 | 4.0 | 0.00 | 0.00 | 0.00 | 57 | 1011.8 |
| 20260506141529 | 49 | 111 | 1.0 | 4.0 | 0.00 | 0.00 | 0.00 | 57 | 1011.8 |
| 20260506141424 | 49 | 69 | 1.0 | 4.0 | 0.00 | 0.00 | 0.00 | 57 | 1012.1 |
| 20260506141318 | 49 | 29 | 0.0 | 4.0 | 0.00 | 0.00 | 0.00 | 59 | 1011.8 |
| 20260506141213 | 49 | 212 | 0.0 | 4.0 | 0.00 | 0.00 | 0.00 | 59 | 1012.1 |
| 20260506141106 | 49 | 340 | 1.0 | 4.0 | 0.00 | 0.00 | 0.00 | 58 | 1011.8 |
| 20260506141029 | 49 | 35 | 0.0 | 4.0 | 0.00 | 0.00 | 0.00 | 60 | 1012.4 |
| 20260506141000 | 49 | 73 | 1.0 | 4.0 | 0.00 | 0.00 | 0.00 | 58 | 1012.4 |
| 20260506140854 | 48 | 102 | 1.0 | 4.0 | 0.00 | 0.00 | 0.00 | 60 | 1012.1 |
| 20260506140750 | 48 | 41 | 2.0 | 4.0 | 0.00 | 0.00 | 0.00 | 58 | 1012.1 |
| 20260506140644 | 48 | 28 | 1.0 | 4.0 | 0.00 | 0.00 | 0.00 | 59 | 1011.8 |
| 20260506140522 | 49 | 40 | 2.0 | 4.0 | 0.00 | 0.00 | 0.00 | 58 | 1011.8 |
| 20260506140432 | 49 | 348 | 2.0 | 4.0 | 0.00 | 0.00 | 0.00 | 58 | 1011.8 |
| 20260506140327 | 49 | 83 | 0.0 | 4.0 | 0.00 | 0.00 | 0.00 | 59 | 1011.8 |
| 20260506140222 | 49 | 108 | 0.0 | 4.0 | 0.00 | 0.00 | 0.00 | 59 | 1011.8 |
| 20260506140115 | 48 | 52 | 2.0 | 4.0 | 0.00 | 0.00 | 0.00 | 58 | 1011.8 |
| 20260506140010 | 48 | 48 | 0.0 | 4.0 | 0.00 | 0.00 | 0.00 | 60 | 1012.1 |
| 20260506135903 | 48 | 40 | 3.0 | 4.0 | 0.00 | 0.00 | 0.00 | 59 | 1011.8 |
| 20260506135805 | 47 | 49 | 1.0 | 4.0 | 0.00 | 0.00 | 0.00 | 61 | 1011.8 |
| 20260506135801 | 48 | 72 | 0.0 | 4.0 | 0.00 | 0.00 | 0.00 | 60 | 1011.8 |
| 20260506135752 | 47 | 87 | 0.0 | 4.0 | 0.00 | 0.00 | 0.00 | 61 | 1011.8 |
| 20260506135743 | 48 | 31 | 1.0 | 4.0 | 0.00 | 0.00 | 0.00 | 60 | 1011.8 |
| 20260506135517 | 48 | 318 | 2.0 | 4.0 | 0.00 | 0.00 | 0.00 | 59 | 1011.8 |
| 20260506135513 | 48 | 82 | 1.0 | 4.0 | 0.00 | 0.00 | 0.00 | 59 | 1011.8 |
| 20260506135504 | 48 | 357 | 1.0 | 3.0 | 0.00 | 0.00 | 0.00 | 59 | 1011.8 |
| 20260506135240 | 47 | 28 | 2.0 | 4.0 | 0.00 | 0.00 | 0.00 | 60 | 1011.8 |
| 20260506135231 | 47 | 73 | 1.0 | 4.0 | 0.00 | 0.00 | 0.00 | 61 | 1011.4 |
| 20260506135223 | 47 | 81 | 2.0 | 4.0 | 0.00 | 0.00 | 0.00 | 60 | 1011.8 |
| 20260506135000 | 45 | 306 | 1.0 | 4.0 | 0.00 | 0.00 | 0.00 | 62 | 1011.8 |
| 20260506134956 | 46 | 68 | 2.0 | 4.0 | 0.00 | 0.00 | 0.00 | 60 | 1011.8 |
| 20260506134947 | 46 | 125 | 0.0 | 4.0 | 0.00 | 0.00 | 0.00 | 62 | 1011.8 |
| 20260506134724 | 45 | 353 | 2.0 | 4.0 | 0.00 | 0.00 | 0.00 | 62 | 1011.8 |
| 20260506134715 | 45 | 13 | 0.0 | 4.0 | 0.00 | 0.00 | 0.00 | 61 | 1011.8 |
| 20260506134450 | 45 | 26 | 2.0 | 4.0 | 0.00 | 0.00 | 0.00 | 62 | 1011.8 |
| 20260506134344 | 45 | 303 | 4.0 | 4.0 | 0.00 | 0.00 | 0.00 | 61 | 1011.8 |
| 20260506134301 | 45 | 8 | 2.0 | 4.0 | 0.00 | 0.00 | 0.00 | 63 | 1011.8 |
| 20260506134252 | 45 | 61 | 2.0 | 6.0 | 0.00 | 0.00 | 0.00 | 62 | 1011.8 |
| 20260506134033 | 46 | 294 | 2.0 | 6.0 | 0.00 | 0.00 | 0.00 | 62 | 1011.8 |
| 20260506134022 | 46 | 313 | 3.0 | 6.0 | 0.00 | 0.00 | 0.00 | 62 | 1011.8 |
| 20260506134018 | 46 | 343 | 1.0 | 6.0 | 0.00 | 0.00 | 0.00 | 62 | 1011.8 |
| 20260506134009 | 45 | 145 | 0.0 | 6.0 | 0.00 | 0.00 | 0.00 | 63 | 1011.8 |
| 20260506133743 | 44 | 75 | 0.0 | 6.0 | 0.00 | 0.00 | 0.00 | 63 | 1011.8 |
| 20260506133735 | 44 | 307 | 3.0 | 6.0 | 0.00 | 0.00 | 0.00 | 64 | 1011.8 |
| 20260506133504 | 44 | 5 | 2.0 | 6.0 | 0.00 | 0.00 | 0.00 | 65 | 1011.8 |
| 20260506133500 | 44 | 334 | 2.0 | 6.0 | 0.00 | 0.00 | 0.00 | 64 | 1011.8 |
| 20260506133451 | 44 | 358 | 2.0 | 6.0 | 0.00 | 0.00 | 0.00 | 64 | 1011.8 |
| 20260506133231 | 45 | 324 | 2.0 | 4.0 | 0.00 | 0.00 | 0.00 | 64 | 1011.8 |
| 20260506133222 | 46 | 310 | 0.0 | 4.0 | 0.00 | 0.00 | 0.00 | 63 | 1011.8 |
| 20260506132953 | 46 | 53 | 2.0 | 4.0 | 0.00 | 0.00 | 0.00 | 64 | 1011.4 |
| 20260506132944 | 46 | 330 | 2.0 | 4.0 | 0.00 | 0.00 | 0.00 | 64 | 1011.8 |
| 20260506132723 | 46 | 347 | 1.0 | 4.0 | 0.00 | 0.00 | 0.00 | 65 | 1011.8 |
| 20260506132714 | 46 | 341 | 2.0 | 4.0 | 0.00 | 0.00 | 0.00 | 63 | 1011.8 |
| 20260506132705 | 46 | 51 | 2.0 | 4.0 | 0.00 | 0.00 | 0.00 | 64 | 1011.4 |
| 20260506132440 | 45 | 78 | 3.0 | 4.0 | 0.00 | 0.00 | 0.00 | 65 | 1011.4 |
| 20260506132435 | 45 | 80 | 1.0 | 4.0 | 0.00 | 0.00 | 0.00 | 65 | 1011.4 |
| 20260506132426 | 46 | 337 | 2.0 | 4.0 | 0.00 | 0.00 | 0.00 | 64 | 1011.4 |
| 20260506132205 | 46 | 331 | 2.0 | 4.0 | 0.00 | 0.00 | 0.00 | 63 | 1011.4 |
| 20260506132156 | 46 | 46 | 1.0 | 6.0 | 0.00 | 0.00 | 0.00 | 64 | 1011.4 |
| 20260506132148 | 46 | 69 | 2.0 | 6.0 | 0.00 | 0.00 | 0.00 | 64 | 1011.8 |
| 20260506131922 | 46 | 54 | 1.0 | 6.0 | 0.00 | 0.00 | 0.00 | 64 | 1011.8 |
| 20260506131918 | 46 | 67 | 1.0 | 6.0 | 0.00 | 0.00 | 0.00 | 65 | 1011.4 |
| 20260506131909 | 46 | 18 | 2.0 | 6.0 | 0.00 | 0.00 | 0.00 | 64 | 1011.4 |
| 20260506131646 | 46 | 79 | 3.0 | 6.0 | 0.00 | 0.00 | 0.00 | 65 | 1011.8 |
| 20260506131637 | 46 | 35 | 2.0 | 6.0 | 0.00 | 0.00 | 0.00 | 66 | 1011.4 |
| 20260506131410 | 45 | 36 | 2.0 | 6.0 | 0.00 | 0.00 | 0.00 | 67 | 1011.4 |
| 20260506131304 | 44 | 62 | 0.0 | 6.0 | 0.00 | 0.00 | 0.00 | 70 | 1011.4 |
| 20260506131157 | 44 | 338 | 3.0 | 6.0 | 0.00 | 0.00 | 0.00 | 68 | 1011.4 |
| 20260506131050 | 44 | 34 | 1.0 | 6.0 | 0.00 | 0.00 | 0.00 | 68 | 1011.4 |
| 20260506130944 | 43 | 60 | 0.0 | 6.0 | 0.00 | 0.00 | 0.00 | 69 | 1011.4 |
| 20260506130907 | 43 | 26 | 2.0 | 6.0 | 0.00 | 0.00 | 0.00 | 69 | 1011.4 |
| 20260506130839 | 43 | 32 | 2.0 | 6.0 | 0.00 | 0.00 | 0.00 | 69 | 1011.4 |
| 20260506130746 | 43 | 66 | 1.0 | 6.0 | 0.00 | 0.00 | 0.00 | 69 | 1011.4 |
| 20260506130640 | 43 | 11 | 4.0 | 6.0 | 0.00 | 0.00 | 0.00 | 69 | 1011.4 |
| 20260506130521 | 43 | 50 | 0.0 | 6.0 | 0.00 | 0.00 | 0.00 | 69 | 1011.4 |
| 20260506130416 | 43 | 351 | 3.0 | 6.0 | 0.00 | 0.00 | 0.00 | 69 | 1011.1 |
| 20260506130401 | 43 | 351 | 3.0 | 6.0 | 0.00 | 0.00 | 0.00 | 69 | 1011.1 |
| 20260506130324 | 44 | 18 | 0.0 | 6.0 | 0.00 | 0.00 | 0.00 | 69 | 1011.1 |
| 20260506130205 | 44 | 337 | 3.0 | 6.0 | 0.00 | 0.00 | 0.00 | 69 | 1011.1 |
| 20260506130112 | 44 | 245 | 2.0 | 4.0 | 0.00 | 0.00 | 0.00 | 69 | 1011.1 |
| 20260506125953 | 44 | 333 | 4.0 | 4.0 | 0.00 | 0.00 | 0.00 | 69 | 1011.1 |
| 20260506125848 | 44 | 36 | 1.0 | 4.0 | 0.00 | 0.00 | 0.00 | 69 | 1011.1 |
| 20260506125743 | 45 | 21 | 3.0 | 4.0 | 0.00 | 0.00 | 0.00 | 68 | 1011.1 |
| 20260506125637 | 45 | 58 | 1.0 | 3.0 | 0.00 | 0.00 | 0.00 | 68 | 1010.8 |
| 20260506125531 | 45 | 13 | 2.0 | 3.0 | 0.00 | 0.00 | 0.00 | 68 | 1010.8 |
| 20260506125426 | 44 | 354 | 0.0 | 3.0 | 0.00 | 0.00 | 0.00 | 69 | 1011.1 |
| 20260506125348 | 44 | 11 | 0.0 | 3.0 | 0.00 | 0.00 | 0.00 | 69 | 1011.1 |
| 20260506125320 | 44 | 13 | 0.0 | 3.0 | 0.00 | 0.00 | 0.00 | 69 | 1011.1 |
| 20260506125213 | 44 | 349 | 1.0 | 3.0 | 0.00 | 0.00 | 0.00 | 67 | 1011.1 |
| 20260506125109 | 44 | 38 | 1.0 | 3.0 | 0.00 | 0.00 | 0.00 | 68 | 1011.1 |
| 20260506125002 | 43 | 28 | 1.0 | 3.0 | 0.00 | 0.00 | 0.00 | 69 | 1011.1 |
| 20260506124858 | 43 | 28 | 2.0 | 4.0 | 0.00 | 0.00 | 0.00 | 69 | 1011.1 |
| 20260506124841 | 43 | 59 | 3.0 | 4.0 | 0.00 | 0.00 | 0.00 | 68 | 1011.1 |
| 20260506124752 | 44 | 3 | 2.0 | 6.0 | 0.00 | 0.00 | 0.00 | 68 | 1010.8 |
| 20260506124647 | 44 | 33 | 1.0 | 6.0 | 0.00 | 0.00 | 0.00 | 68 | 1010.8 |
| 20260506124540 | 43 | 71 | 0.0 | 6.0 | 0.00 | 0.00 | 0.00 | 71 | 1011.1 |
| 20260506124435 | 43 | 82 | 0.0 | 6.0 | 0.00 | 0.00 | 0.00 | 70 | 1011.1 |
| 20260506124335 | 43 | 70 | 0.0 | 6.0 | 0.00 | 0.00 | 0.00 | 70 | 1010.8 |
| 20260506124329 | 43 | 70 | 1.0 | 6.0 | 0.00 | 0.00 | 0.00 | 70 | 1010.8 |
| 20260506124223 | 43 | 84 | 0.0 | 6.0 | 0.00 | 0.00 | 0.00 | 71 | 1011.1 |
| 20260506124118 | 43 | 65 | 0.0 | 6.0 | 0.00 | 0.00 | 0.00 | 71 | 1010.8 |
| 20260506124013 | 43 | 335 | 2.0 | 6.0 | 0.00 | 0.00 | 0.00 | 70 | 1010.8 |
| 20260506123907 | 43 | 65 | 3.0 | 6.0 | 0.00 | 0.00 | 0.00 | 70 | 1011.1 |
| 20260506123829 | 43 | 30 | 2.0 | 4.0 | 0.00 | 0.00 | 0.00 | 71 | 1011.1 |
| 20260506123801 | 43 | 47 | 2.0 | 4.0 | 0.00 | 0.00 | 0.00 | 71 | 1011.1 |
| 20260506123655 | 43 | 349 | 2.0 | 4.0 | 0.00 | 0.00 | 0.00 | 72 | 1010.8 |
| 20260506123549 | 43 | 61 | 2.0 | 4.0 | 0.00 | 0.00 | 0.00 | 73 | 1011.1 |
| 20260506123444 | 42 | 34 | 0.0 | 4.0 | 0.00 | 0.00 | 0.00 | 74 | 1011.1 |
| 20260506123322 | 42 | 339 | 0.0 | 7.0 | 0.00 | 0.00 | 0.00 | 74 | 1011.1 |
| 20260506123233 | 42 | 346 | 1.0 | 7.0 | 0.00 | 0.00 | 0.00 | 73 | 1011.1 |
| 20260506123127 | 42 | 21 | 0.0 | 7.0 | 0.00 | 0.00 | 0.00 | 73 | 1010.8 |
| 20260506123021 | 42 | 339 | 2.0 | 8.0 | 0.00 | 0.00 | 0.00 | 73 | 1010.8 |
| 20260506122916 | 41 | 27 | 1.0 | 8.0 | 0.00 | 0.00 | 0.00 | 73 | 1011.1 |
| 20260506122809 | 41 | 337 | 2.0 | 8.0 | 0.00 | 0.00 | 0.00 | 73 | 1011.1 |
| 20260506122704 | 41 | 349 | 2.0 | 8.0 | 0.00 | 0.00 | 0.00 | 74 | 1010.8 |
| 20260506122558 | 41 | 344 | 1.0 | 8.0 | 0.00 | 0.00 | 0.00 | 73 | 1010.8 |
| 20260506122453 | 41 | 16 | 2.0 | 8.0 | 0.00 | 0.00 | 0.00 | 73 | 1010.8 |
| 20260506122347 | 41 | 342 | 3.0 | 8.0 | 0.00 | 0.00 | 0.00 | 73 | 1010.8 |
| 20260506122310 | 41 | 1 | 0.0 | 8.0 | 0.00 | 0.00 | 0.00 | 73 | 1010.8 |
| 20260506122241 | 41 | 53 | 0.0 | 8.0 | 0.00 | 0.00 | 0.00 | 73 | 1010.8 |
| 20260506122135 | 42 | 357 | 7.0 | 8.0 | 0.00 | 0.00 | 0.00 | 73 | 1010.8 |
| 20260506122030 | 42 | 15 | 1.0 | 4.0 | 0.00 | 0.00 | 0.00 | 73 | 1010.8 |
| 20260506121924 | 42 | 66 | 2.0 | 4.0 | 0.00 | 0.00 | 0.00 | 73 | 1010.8 |
| 20260506121818 | 42 | 358 | 2.0 | 4.0 | 0.00 | 0.00 | 0.00 | 73 | 1010.8 |
| 20260506121803 | 42 | 8 | 3.0 | 4.0 | 0.00 | 0.00 | 0.00 | 72 | 1010.8 |
| 20260506121713 | 42 | 354 | 1.0 | 4.0 | 0.00 | 0.00 | 0.00 | 73 | 1010.8 |
| 20260506121607 | 42 | 28 | 0.0 | 4.0 | 0.00 | 0.00 | 0.00 | 72 | 1010.8 |
| 20260506121501 | 42 | 58 | 0.0 | 4.0 | 0.00 | 0.00 | 0.00 | 72 | 1010.8 |
| 20260506121356 | 42 | 66 | 0.0 | 4.0 | 0.00 | 0.00 | 0.00 | 72 | 1010.8 |
| 20260506121256 | 42 | 30 | 0.0 | 4.0 | 0.00 | 0.00 | 0.00 | 72 | 1010.8 |
| 20260506121250 | 42 | 42 | 0.0 | 4.0 | 0.00 | 0.00 | 0.00 | 72 | 1010.8 |
| 20260506121144 | 43 | 73 | 1.0 | 4.0 | 0.00 | 0.00 | 0.00 | 72 | 1010.8 |
| 20260506121039 | 43 | 63 | 2.0 | 4.0 | 0.00 | 0.00 | 0.00 | 71 | 1010.8 |
| 20260506120932 | 43 | 63 | 0.0 | 3.0 | 0.00 | 0.00 | 0.00 | 71 | 1010.8 |
| 20260506120828 | 43 | 70 | 1.0 | 3.0 | 0.00 | 0.00 | 0.00 | 72 | 1010.8 |
| 20260506120749 | 43 | 73 | 0.0 | 3.0 | 0.00 | 0.00 | 0.00 | 72 | 1010.8 |
| 20260506120722 | 43 | 64 | 1.0 | 3.0 | 0.00 | 0.00 | 0.00 | 72 | 1010.8 |
| 20260506120616 | 43 | 23 | 0.0 | 3.0 | 0.00 | 0.00 | 0.00 | 71 | 1011.1 |
| 20260506120511 | 43 | 39 | 1.0 | 3.0 | 0.00 | 0.00 | 0.00 | 72 | 1010.8 |
| 20260506120417 | 43 | 36 | 1.0 | 3.0 | 0.00 | 0.00 | 0.00 | 71 | 1011.1 |
| 20260506120243 | 43 | 28 | 0.0 | 3.0 | 0.00 | 0.00 | 0.00 | 72 | 1010.8 |
| 20260506120153 | 43 | 37 | 1.0 | 3.0 | 0.00 | 0.00 | 0.00 | 72 | 1010.8 |
| 20260506120047 | 42 | 73 | 1.0 | 3.0 | 0.00 | 0.00 | 0.00 | 72 | 1010.8 |
| 20260506115942 | 42 | 354 | 2.0 | 3.0 | 0.00 | 0.00 | 0.00 | 72 | 1010.8 |
| 20260506115837 | 42 | 6 | 0.0 | 3.0 | 0.00 | 0.00 | 0.00 | 72 | 1010.8 |
| 20260506115737 | 42 | 353 | 1.0 | 3.0 | 0.00 | 0.00 | 0.00 | 72 | 1010.8 |
| 20260506115731 | 42 | 349 | 1.0 | 3.0 | 0.00 | 0.00 | 0.00 | 72 | 1010.8 |
| 20260506115623 | 42 | 37 | 0.0 | 3.0 | 0.00 | 0.00 | 0.00 | 72 | 1010.4 |
| 20260506115515 | 42 | 355 | 3.0 | 3.0 | 0.00 | 0.00 | 0.00 | 72 | 1010.4 |
| 20260506115423 | 42 | 2 | 0.0 | 3.0 | 0.00 | 0.00 | 0.00 | 73 | 1010.4 |
| 20260506115306 | 42 | 4 | 1.0 | 3.0 | 0.00 | 0.00 | 0.00 | 73 | 1010.4 |
| 20260506115238 | 42 | 346 | 1.0 | 3.0 | 0.00 | 0.00 | 0.00 | 73 | 1010.4 |
| 20260506115159 | 42 | 355 | 0.0 | 3.0 | 0.00 | 0.00 | 0.00 | 73 | 1010.4 |
| 20260506115053 | 42 | 353 | 0.0 | 4.0 | 0.00 | 0.00 | 0.00 | 73 | 1010.4 |
| 20260506114947 | 42 | 352 | 0.0 | 4.0 | 0.00 | 0.00 | 0.00 | 72 | 1010.4 |
| 20260506114842 | 42 | 1 | 0.0 | 4.0 | 0.00 | 0.00 | 0.00 | 73 | 1010.4 |
| 20260506114735 | 42 | 28 | 0.0 | 4.0 | 0.00 | 0.00 | 0.00 | 73 | 1010.4 |
| 20260506114629 | 41 | 43 | 0.0 | 4.0 | 0.00 | 0.00 | 0.00 | 73 | 1010.0 |
| 20260506114524 | 41 | 36 | 2.0 | 4.0 | 0.00 | 0.00 | 0.00 | 73 | 1010.4 |
| 20260506114418 | 41 | 12 | 0.0 | 4.0 | 0.00 | 0.00 | 0.00 | 73 | 1010.4 |
| 20260506114313 | 41 | 28 | 1.0 | 4.0 | 0.00 | 0.00 | 0.00 | 72 | 1010.0 |
| 20260506114224 | 41 | 20 | 1.0 | 4.0 | 0.00 | 0.00 | 0.00 | 72 | 1010.0 |
| 20260506114208 | 41 | 48 | 2.0 | 4.0 | 0.00 | 0.00 | 0.00 | 73 | 1010.0 |
| 20260506114102 | 41 | 343 | 2.0 | 4.0 | 0.00 | 0.00 | 0.00 | 73 | 1010.4 |
| 20260506113957 | 41 | 333 | 1.0 | 2.0 | 0.00 | 0.00 | 0.00 | 73 | 1010.4 |
| 20260506113849 | 41 | 355 | 1.0 | 2.0 | 0.00 | 0.00 | 0.00 | 73 | 1010.0 |
| 20260506113745 | 41 | 328 | 1.0 | 2.0 | 0.00 | 0.00 | 0.00 | 73 | 1010.0 |
| 20260506113717 | 41 | 7 | 0.0 | 2.0 | 0.00 | 0.00 | 0.00 | 73 | 1010.4 |
| 20260506113639 | 41 | 20 | 1.0 | 2.0 | 0.00 | 0.00 | 0.00 | 73 | 1010.4 |
| 20260506113533 | 41 | 344 | 0.0 | 2.0 | 0.00 | 0.00 | 0.00 | 74 | 1010.0 |
| 20260506113427 | 41 | 11 | 0.0 | 2.0 | 0.00 | 0.00 | 0.00 | 74 | 1010.0 |
| 20260506113321 | 41 | 339 | 0.0 | 2.0 | 0.00 | 0.00 | 0.00 | 74 | 1010.0 |
| 20260506113215 | 41 | 340 | 0.0 | 2.0 | 0.00 | 0.00 | 0.00 | 74 | 1010.0 |
| 20260506113110 | 41 | 343 | 1.0 | 2.0 | 0.00 | 0.00 | 0.00 | 74 | 1010.0 |
| 20260506113005 | 41 | 13 | 0.0 | 2.0 | 0.00 | 0.00 | 0.00 | 74 | 1010.0 |
| 20260506112859 | 41 | 6 | 0.0 | 2.0 | 0.00 | 0.00 | 0.00 | 73 | 1010.0 |
| 20260506112753 | 41 | 347 | 0.0 | 2.0 | 0.00 | 0.00 | 0.00 | 74 | 1010.0 |
| 20260506112705 | 41 | 6 | 0.0 | 2.0 | 0.00 | 0.00 | 0.00 | 74 | 1009.6 |
| 20260506112647 | 41 | 9 | 0.0 | 2.0 | 0.00 | 0.00 | 0.00 | 74 | 1009.6 |
| 20260506112542 | 41 | 8 | 1.0 | 2.0 | 0.00 | 0.00 | 0.00 | 74 | 1010.0 |
| 20260506112436 | 41 | 334 | 0.0 | 2.0 | 0.00 | 0.00 | 0.00 | 73 | 1010.0 |
| 20260506112332 | 41 | 334 | 1.0 | 2.0 | 0.00 | 0.00 | 0.00 | 73 | 1010.0 |
| 20260506112225 | 41 | 335 | 0.0 | 2.0 | 0.00 | 0.00 | 0.00 | 73 | 1009.6 |
| 20260506112159 | 41 | 335 | 1.0 | 2.0 | 0.00 | 0.00 | 0.00 | 73 | 1009.6 |
| 20260506112120 | 41 | 340 | 0.0 | 2.0 | 0.00 | 0.00 | 0.00 | 73 | 1009.6 |
| 20260506112014 | 41 | 11 | 0.0 | 2.0 | 0.00 | 0.00 | 0.00 | 73 | 1009.6 |
| 20260506111908 | 41 | 347 | 1.0 | 2.0 | 0.00 | 0.00 | 0.00 | 73 | 1009.6 |
| 20260506111803 | 41 | 345 | 0.0 | 2.0 | 0.00 | 0.00 | 0.00 | 73 | 1009.6 |
| 20260506111657 | 41 | 358 | 0.0 | 2.0 | 0.00 | 0.00 | 0.00 | 73 | 1009.6 |
| 20260506111550 | 41 | 332 | 0.0 | 2.0 | 0.00 | 0.00 | 0.00 | 73 | 1009.6 |
| 20260506111443 | 41 | 332 | 0.0 | 2.0 | 0.00 | 0.00 | 0.00 | 72 | 1009.6 |
| 20260506111339 | 41 | 332 | 1.0 | 2.0 | 0.00 | 0.00 | 0.00 | 72 | 1010.0 |
| 20260506111233 | 41 | 339 | 1.0 | 2.0 | 0.00 | 0.00 | 0.00 | 72 | 1010.0 |
| 20260506111144 | 41 | 20 | 0.0 | 2.0 | 0.00 | 0.00 | 0.00 | 73 | 1010.0 |
| 20260506111128 | 41 | 23 | 0.0 | 2.0 | 0.00 | 0.00 | 0.00 | 73 | 1009.6 |
| 20260506111035 | 42 | 31 | 1.0 | 2.0 | 0.00 | 0.00 | 0.00 | 73 | 1009.6 |
| 20260506110916 | 42 | 334 | 1.0 | 2.0 | 0.00 | 0.00 | 0.00 | 73 | 1009.6 |
| 20260506110811 | 42 | 334 | 1.0 | 2.0 | 0.00 | 0.00 | 0.00 | 72 | 1010.0 |
| 20260506110718 | 42 | 333 | 1.0 | 2.0 | 0.00 | 0.00 | 0.00 | 72 | 1009.6 |
| 20260506110638 | 42 | 346 | 1.0 | 2.0 | 0.00 | 0.00 | 0.00 | 72 | 1009.6 |
| 20260506110600 | 42 | 11 | 1.0 | 2.0 | 0.00 | 0.00 | 0.00 | 72 | 1009.6 |
| 20260506110453 | 42 | 348 | 0.0 | 2.0 | 0.00 | 0.00 | 0.00 | 72 | 1010.0 |
| 20260506110347 | 42 | 17 | 0.0 | 2.0 | 0.00 | 0.00 | 0.00 | 72 | 1009.6 |
| 20260506110241 | 42 | 329 | 1.0 | 2.0 | 0.00 | 0.00 | 0.00 | 71 | 1009.6 |
| 20260506110138 | 42 | 329 | 1.0 | 2.0 | 0.00 | 0.00 | 0.00 | 71 | 1009.6 |
| 20260506110030 | 42 | 329 | 1.0 | 2.0 | 0.00 | 0.00 | 0.00 | 71 | 1009.6 |
| 20260506105925 | 42 | 359 | 2.0 | 2.0 | 0.00 | 0.00 | 0.00 | 72 | 1009.6 |
| 20260506105819 | 42 | 332 | 0.0 | 2.0 | 0.00 | 0.00 | 0.00 | 71 | 1009.6 |
| 20260506105712 | 42 | 334 | 0.0 | 2.0 | 0.00 | 0.00 | 0.00 | 71 | 1009.6 |
| 20260506105624 | 42 | 329 | 1.0 | 2.0 | 0.00 | 0.00 | 0.00 | 71 | 1009.6 |
| 20260506105607 | 42 | 329 | 0.0 | 2.0 | 0.00 | 0.00 | 0.00 | 71 | 1009.6 |
| 20260506105502 | 42 | 340 | 1.0 | 2.0 | 0.00 | 0.00 | 0.00 | 71 | 1009.6 |
| 20260506105355 | 42 | 349 | 0.0 | 0.0 | 0.00 | 0.00 | 0.00 | 71 | 1009.3 |
| 20260506105250 | 42 | 354 | 0.0 | 0.0 | 0.00 | 0.00 | 0.00 | 71 | 1009.6 |
| 20260506105118 | 42 | 357 | 0.0 | 0.0 | 0.00 | 0.00 | 0.00 | 70 | 1009.6 |
| 20260506105038 | 42 | 354 | 0.0 | 0.0 | 0.00 | 0.00 | 0.00 | 71 | 1009.3 |
| 20260506104933 | 42 | 352 | 0.0 | 0.0 | 0.00 | 0.00 | 0.00 | 71 | 1009.3 |
| 20260506104827 | 42 | 4 | 0.0 | 0.0 | 0.00 | 0.00 | 0.00 | 71 | 1009.3 |
| 20260506104722 | 42 | 329 | 0.0 | 0.0 | 0.00 | 0.00 | 0.00 | 70 | 1009.6 |
| 20260506104616 | 42 | 329 | 0.0 | 0.0 | 0.00 | 0.00 | 0.00 | 71 | 1009.6 |
| 20260506104511 | 42 | 341 | 0.0 | 0.0 | 0.00 | 0.00 | 0.00 | 72 | 1009.3 |
| 20260506104405 | 42 | 333 | 0.0 | 0.0 | 0.00 | 0.00 | 0.00 | 71 | 1009.6 |
| 20260506104300 | 42 | 333 | 0.0 | 0.0 | 0.00 | 0.00 | 0.00 | 71 | 1009.3 |
| 20260506104154 | 42 | 8 | 0.0 | 0.0 | 0.00 | 0.00 | 0.00 | 71 | 1009.3 |
| 20260506104105 | 42 | 13 | 0.0 | 1.0 | 0.00 | 0.00 | 0.00 | 71 | 1009.6 |
| 20260506104048 | 42 | 340 | 0.0 | 1.0 | 0.00 | 0.00 | 0.00 | 71 | 1009.6 |
| 20260506103943 | 42 | 341 | 0.0 | 1.0 | 0.00 | 0.00 | 0.00 | 70 | 1009.3 |
| 20260506103838 | 42 | 341 | 0.0 | 1.0 | 0.00 | 0.00 | 0.00 | 70 | 1009.3 |
| 20260506103829 | 42 | 349 | 0.0 | 2.0 | 0.00 | 0.00 | 0.00 | 69 | 1009.6 |
| 20260506103824 | 42 | 341 | 0.0 | 2.0 | 0.00 | 0.00 | 0.00 | 70 | 1009.6 |
| 20260506103815 | 42 | 349 | 0.0 | 2.0 | 0.00 | 0.00 | 0.00 | 69 | 1009.6 |
| 20260506103519 | 42 | 350 | 0.0 | 2.0 | 0.00 | 0.00 | 0.00 | 69 | 1009.6 |
| 20260506103413 | 42 | 345 | 0.0 | 2.0 | 0.00 | 0.00 | 0.00 | 69 | 1009.6 |
| 20260506103308 | 43 | 340 | 0.0 | 2.0 | 0.00 | 0.00 | 0.00 | 69 | 1009.6 |
| 20260506103202 | 43 | 346 | 0.0 | 3.0 | 0.00 | 0.00 | 0.00 | 70 | 1009.6 |
| 20260506103056 | 43 | 347 | 0.0 | 3.0 | 0.00 | 0.00 | 0.00 | 69 | 1009.3 |
| 20260506102951 | 43 | 345 | 0.0 | 3.0 | 0.00 | 0.00 | 0.00 | 69 | 1009.6 |
| 20260506102845 | 43 | 338 | 0.0 | 3.0 | 0.00 | 0.00 | 0.00 | 69 | 1009.6 |
| 20260506102739 | 43 | 343 | 2.0 | 3.0 | 0.00 | 0.00 | 0.00 | 69 | 1009.3 |
| 20260506102634 | 43 | 5 | 0.0 | 3.0 | 0.00 | 0.00 | 0.00 | 69 | 1009.6 |
| 20260506102546 | 43 | 331 | 1.0 | 3.0 | 0.00 | 0.00 | 0.00 | 69 | 1009.6 |
| 20260506102528 | 43 | 330 | 2.0 | 3.0 | 0.00 | 0.00 | 0.00 | 69 | 1009.3 |
| 20260506102422 | 43 | 353 | 1.0 | 3.0 | 0.00 | 0.00 | 0.00 | 69 | 1009.6 |
| 20260506102317 | 43 | 344 | 2.0 | 3.0 | 0.00 | 0.00 | 0.00 | 70 | 1009.3 |
| 20260506102211 | 43 | 330 | 1.0 | 2.0 | 0.00 | 0.00 | 0.00 | 70 | 1009.6 |
| 20260506102106 | 43 | 326 | 1.0 | 2.0 | 0.00 | 0.00 | 0.00 | 70 | 1009.6 |
| 20260506102038 | 43 | 328 | 2.0 | 2.0 | 0.00 | 0.00 | 0.00 | 71 | 1009.6 |
| 20260506102000 | 43 | 337 | 0.0 | 2.0 | 0.00 | 0.00 | 0.00 | 71 | 1009.3 |
| 20260506101854 | 43 | 337 | 0.0 | 2.0 | 0.00 | 0.00 | 0.00 | 70 | 1009.3 |
| 20260506101748 | 43 | 337 | 1.0 | 2.0 | 0.00 | 0.00 | 0.00 | 71 | 1009.3 |
| 20260506101643 | 43 | 337 | 0.0 | 2.0 | 0.00 | 0.00 | 0.00 | 70 | 1009.3 |
| 20260506101537 | 43 | 337 | 0.0 | 2.0 | 0.00 | 0.00 | 0.00 | 70 | 1009.3 |
| 20260506101431 | 43 | 337 | 1.0 | 2.0 | 0.00 | 0.00 | 0.00 | 69 | 1009.3 |
| 20260506101326 | 43 | 65 | 0.0 | 1.0 | 0.00 | 0.00 | 0.00 | 70 | 1009.3 |
| 20260506101220 | 43 | 69 | 0.0 | 1.0 | 0.00 | 0.00 | 0.00 | 70 | 1009.3 |
| 20260506101114 | 43 | 32 | 0.0 | 2.0 | 0.00 | 0.00 | 0.00 | 69 | 1009.3 |
| 20260506101026 | 43 | 5 | 0.0 | 2.0 | 0.00 | 0.00 | 0.00 | 69 | 1009.3 |
| 20260506101009 | 43 | 340 | 0.0 | 2.0 | 0.00 | 0.00 | 0.00 | 69 | 1009.3 |
| 20260506100903 | 43 | 33 | 0.0 | 3.0 | 0.00 | 0.00 | 0.00 | 69 | 1009.0 |
| 20260506100758 | 43 | 30 | 0.0 | 3.0 | 0.00 | 0.00 | 0.00 | 69 | 1009.0 |
| 20260506100651 | 43 | 27 | 0.0 | 3.0 | 0.00 | 0.00 | 0.00 | 69 | 1009.0 |
| 20260506100546 | 43 | 45 | 0.0 | 3.0 | 0.00 | 0.00 | 0.00 | 69 | 1009.3 |
| 20260506100519 | 43 | 45 | 0.0 | 3.0 | 0.00 | 0.00 | 0.00 | 69 | 1009.0 |
| 20260506100440 | 43 | 31 | 0.0 | 3.0 | 0.00 | 0.00 | 0.00 | 69 | 1009.0 |
| 20260506100336 | 43 | 56 | 1.0 | 3.0 | 0.00 | 0.00 | 0.00 | 69 | 1009.0 |
| 20260506100232 | 43 | 36 | 0.0 | 3.0 | 0.00 | 0.00 | 0.00 | 69 | 1009.0 |
| 20260506100136 | 43 | 25 | 0.0 | 3.0 | 0.00 | 0.00 | 0.00 | 69 | 1009.0 |
| 20260506100018 | 43 | 341 | 2.0 | 3.0 | 0.00 | 0.00 | 0.00 | 70 | 1009.0 |
| 20260506095912 | 43 | 46 | 1.0 | 2.0 | 0.00 | 0.00 | 0.00 | 70 | 1009.0 |
| 20260506095805 | 43 | 35 | 0.0 | 2.0 | 0.00 | 0.00 | 0.00 | 70 | 1009.0 |
| 20260506095658 | 43 | 42 | 0.0 | 3.0 | 0.00 | 0.00 | 0.00 | 70 | 1009.0 |
| 20260506095553 | 43 | 41 | 0.0 | 3.0 | 0.00 | 0.00 | 0.00 | 70 | 1009.0 |
| 20260506095505 | 43 | 32 | 0.0 | 3.0 | 0.00 | 0.00 | 0.00 | 70 | 1009.0 |
| 20260506095448 | 43 | 55 | 0.0 | 3.0 | 0.00 | 0.00 | 0.00 | 70 | 1009.0 |
| 20260506095342 | 43 | 47 | 0.0 | 3.0 | 0.00 | 0.00 | 0.00 | 69 | 1009.0 |
| 20260506095236 | 43 | 41 | 1.0 | 3.0 | 0.00 | 0.00 | 0.00 | 70 | 1009.0 |
| 20260506095130 | 43 | 34 | 0.0 | 3.0 | 0.00 | 0.00 | 0.00 | 70 | 1009.0 |
| 20260506095025 | 43 | 61 | 1.0 | 3.0 | 0.00 | 0.00 | 0.00 | 70 | 1009.0 |
| 20260506094959 | 43 | 23 | 1.0 | 3.0 | 0.00 | 0.00 | 0.00 | 69 | 1009.0 |
| 20260506094919 | 43 | 43 | 1.0 | 3.0 | 0.00 | 0.00 | 0.00 | 69 | 1008.6 |
| 20260506094814 | 43 | 42 | 0.0 | 3.0 | 0.00 | 0.00 | 0.00 | 70 | 1009.0 |
| 20260506094707 | 43 | 17 | 1.0 | 3.0 | 0.00 | 0.00 | 0.00 | 71 | 1009.0 |
| 20260506094603 | 43 | 36 | 2.0 | 6.0 | 0.00 | 0.00 | 0.00 | 71 | 1009.0 |
| 20260506094454 | 43 | 358 | 2.0 | 6.0 | 0.00 | 0.00 | 0.00 | 72 | 1009.0 |
| 20260506094349 | 44 | 37 | 1.0 | 6.0 | 0.00 | 0.00 | 0.00 | 72 | 1008.6 |
| 20260506094243 | 44 | 65 | 0.0 | 6.0 | 0.00 | 0.00 | 0.00 | 73 | 1009.0 |
| 20260506094137 | 44 | 21 | 0.0 | 6.0 | 0.00 | 0.00 | 0.00 | 73 | 1009.0 |
| 20260506094032 | 44 | 38 | 0.0 | 6.0 | 0.00 | 0.00 | 0.00 | 73 | 1009.0 |
| 20260506093928 | 44 | 52 | 1.0 | 6.0 | 0.00 | 0.00 | 0.00 | 73 | 1009.0 |
| 20260506093820 | 44 | 52 | 0.0 | 6.0 | 0.00 | 0.00 | 0.00 | 73 | 1009.0 |
| 20260506093715 | 44 | 40 | 1.0 | 6.0 | 0.00 | 0.00 | 0.00 | 74 | 1009.0 |
| 20260506093609 | 44 | 354 | 4.0 | 6.0 | 0.00 | 0.00 | 0.00 | 73 | 1009.0 |
| 20260506093504 | 44 | 332 | 1.0 | 6.0 | 0.00 | 0.00 | 0.00 | 73 | 1009.0 |
| 20260506093438 | 44 | 25 | 0.0 | 6.0 | 0.00 | 0.00 | 0.00 | 73 | 1009.0 |
| 20260506093254 | 44 | 24 | 0.0 | 3.0 | 0.00 | 0.00 | 0.00 | 74 | 1008.6 |
| 20260506093041 | 44 | 30 | 2.0 | 4.0 | 0.00 | 0.00 | 0.00 | 74 | 1008.6 |
| 20260506092934 | 44 | 26 | 0.0 | 4.0 | 0.00 | 0.00 | 0.00 | 74 | 1009.0 |
| 20260506092829 | 44 | 22 | 0.0 | 4.0 | 0.00 | 0.00 | 0.00 | 74 | 1009.0 |
| 20260506092723 | 44 | 19 | 1.0 | 4.0 | 0.00 | 0.00 | 0.00 | 74 | 1009.0 |
| 20260506092618 | 44 | 314 | 0.0 | 4.0 | 0.00 | 0.00 | 0.00 | 74 | 1009.0 |
| 20260506092514 | 44 | 342 | 1.0 | 4.0 | 0.00 | 0.00 | 0.00 | 74 | 1009.0 |
| 20260506092425 | 44 | 1 | 2.0 | 4.0 | 0.00 | 0.00 | 0.00 | 74 | 1009.0 |
| 20260506092305 | 44 | 15 | 2.0 | 4.0 | 0.00 | 0.00 | 0.00 | 74 | 1009.0 |
| 20260506092159 | 44 | 351 | 4.0 | 4.0 | 0.00 | 0.00 | 0.00 | 74 | 1009.0 |
| 20260506092052 | 44 | 19 | 1.0 | 2.0 | 0.00 | 0.00 | 0.00 | 75 | 1008.6 |
| 20260506091947 | 44 | 326 | 2.0 | 2.0 | 0.00 | 0.00 | 0.00 | 75 | 1008.6 |
| 20260506091920 | 44 | 45 | 0.0 | 2.0 | 0.00 | 0.00 | 0.00 | 75 | 1008.6 |
| 20260506091841 | 44 | 51 | 0.0 | 2.0 | 0.00 | 0.00 | 0.00 | 74 | 1008.3 |
| 20260506091735 | 44 | 6 | 2.0 | 2.0 | 0.00 | 0.00 | 0.00 | 75 | 1009.0 |
| 20260506091524 | 44 | 45 | 0.0 | 2.0 | 0.00 | 0.00 | 0.00 | 75 | 1008.6 |
| 20260506091418 | 44 | 48 | 0.0 | 2.0 | 0.00 | 0.00 | 0.00 | 75 | 1008.6 |
| 20260506091312 | 44 | 48 | 0.0 | 2.0 | 0.00 | 0.00 | 0.00 | 75 | 1008.6 |
| 20260506091207 | 45 | 37 | 0.0 | 2.0 | 0.00 | 0.00 | 0.00 | 75 | 1008.6 |
| 20260506090954 | 45 | 53 | 0.0 | 4.0 | 0.00 | 0.00 | 0.00 | 75 | 1008.6 |
| 20260506090907 | 45 | 38 | 0.0 | 7.0 | 0.00 | 0.00 | 0.00 | 75 | 1008.6 |
| 20260506090849 | 45 | 54 | 1.0 | 7.0 | 0.00 | 0.00 | 0.00 | 75 | 1008.6 |
| 20260506090744 | 45 | 46 | 1.0 | 7.0 | 0.00 | 0.00 | 0.00 | 75 | 1008.6 |
| 20260506090638 | 45 | 47 | 0.0 | 7.0 | 0.00 | 0.00 | 0.00 | 75 | 1008.6 |
| 20260506090533 | 45 | 41 | 0.0 | 7.0 | 0.00 | 0.00 | 0.00 | 75 | 1008.6 |
| 20260506090426 | 45 | 51 | 0.0 | 7.0 | 0.00 | 0.00 | 0.00 | 74 | 1008.6 |
| 20260506090400 | 45 | 55 | 1.0 | 7.0 | 0.00 | 0.00 | 0.00 | 74 | 1008.6 |
| 20260506090321 | 45 | 41 | 0.0 | 7.0 | 0.00 | 0.00 | 0.00 | 74 | 1008.3 |
| 20260506090215 | 45 | 357 | 1.0 | 7.0 | 0.00 | 0.00 | 0.00 | 74 | 1008.6 |
| 20260506090110 | 45 | 28 | 1.0 | 7.0 | 0.00 | 0.00 | 0.00 | 74 | 1008.3 |
| 20260506090005 | 45 | 26 | 1.0 | 7.0 | 0.00 | 0.00 | 0.00 | 74 | 1008.6 |
| 20260506085858 | 45 | 44 | 0.0 | 2.0 | 0.00 | 0.00 | 0.00 | 74 | 1008.6 |
| 20260506085752 | 45 | 32 | 0.0 | 1.0 | 0.00 | 0.00 | 0.00 | 74 | 1008.6 |
| 20260506085648 | 45 | 22 | 0.0 | 1.0 | 0.00 | 0.00 | 0.00 | 73 | 1008.6 |
| 20260506085541 | 45 | 24 | 0.0 | 1.0 | 0.00 | 0.00 | 0.00 | 73 | 1008.6 |
| 20260506085435 | 45 | 9 | 0.0 | 1.0 | 0.00 | 0.00 | 0.00 | 73 | 1008.6 |
| 20260506085347 | 45 | 10 | 0.0 | 1.0 | 0.00 | 0.00 | 0.00 | 73 | 1008.6 |
| 20260506085329 | 45 | 19 | 0.0 | 1.0 | 0.00 | 0.00 | 0.00 | 73 | 1008.6 |
| 20260506085225 | 45 | 17 | 0.0 | 3.0 | 0.00 | 0.00 | 0.00 | 73 | 1008.6 |
| 20260506085117 | 45 | 358 | 0.0 | 3.0 | 0.00 | 0.00 | 0.00 | 73 | 1008.6 |
| 20260506085012 | 45 | 8 | 0.0 | 3.0 | 0.00 | 0.00 | 0.00 | 73 | 1008.6 |
| 20260506084907 | 45 | 15 | 0.0 | 3.0 | 0.00 | 0.00 | 0.00 | 72 | 1008.3 |
| 20260506084840 | 45 | 20 | 1.0 | 3.0 | 0.00 | 0.00 | 0.00 | 72 | 1008.3 |
| 20260506084801 | 45 | 3 | 0.0 | 4.0 | 0.00 | 0.00 | 0.00 | 72 | 1008.3 |
| 20260506084655 | 45 | 27 | 0.0 | 4.0 | 0.00 | 0.00 | 0.00 | 72 | 1008.3 |
| 20260506084550 | 45 | 32 | 0.0 | 4.0 | 0.00 | 0.00 | 0.00 | 72 | 1008.3 |
| 20260506084444 | 45 | 32 | 0.0 | 4.0 | 0.00 | 0.00 | 0.00 | 71 | 1008.6 |
| 20260506084338 | 45 | 22 | 0.0 | 4.0 | 0.00 | 0.00 | 0.00 | 71 | 1008.6 |
| 20260506084233 | 46 | 345 | 0.0 | 4.0 | 0.00 | 0.00 | 0.00 | 71 | 1008.6 |
| 20260506084127 | 46 | 27 | 0.0 | 4.0 | 0.00 | 0.00 | 0.00 | 71 | 1008.6 |
| 20260506084020 | 46 | 8 | 0.0 | 4.0 | 0.00 | 0.00 | 0.00 | 71 | 1008.6 |
| 20260506083914 | 46 | 2 | 2.0 | 4.0 | 0.00 | 0.00 | 0.00 | 71 | 1008.6 |
| 20260506083825 | 46 | 345 | 1.0 | 3.0 | 0.00 | 0.00 | 0.00 | 71 | 1008.6 |
| 20260506083809 | 46 | 347 | 0.0 | 3.0 | 0.00 | 0.00 | 0.00 | 71 | 1008.6 |
| 20260506083702 | 46 | 24 | 1.0 | 3.0 | 0.00 | 0.00 | 0.00 | 71 | 1008.6 |
| 20260506083557 | 46 | 30 | 0.0 | 3.0 | 0.00 | 0.00 | 0.00 | 71 | 1008.6 |
| 20260506083451 | 46 | 2 | 1.0 | 3.0 | 0.00 | 0.00 | 0.00 | 71 | 1008.6 |
| 20260506083346 | 46 | 335 | 1.0 | 3.0 | 0.00 | 0.00 | 0.00 | 70 | 1008.3 |
| 20260506083319 | 46 | 32 | 1.0 | 2.0 | 0.00 | 0.00 | 0.00 | 70 | 1008.6 |
| 20260506083241 | 46 | 11 | 0.0 | 2.0 | 0.00 | 0.00 | 0.00 | 70 | 1008.6 |
| 20260506083136 | 46 | 356 | 0.0 | 2.0 | 0.00 | 0.00 | 0.00 | 70 | 1008.6 |
| 20260506083029 | 46 | 18 | 0.0 | 2.0 | 0.00 | 0.00 | 0.00 | 70 | 1008.6 |
| 20260506082923 | 46 | 340 | 0.0 | 2.0 | 0.00 | 0.00 | 0.00 | 71 | 1008.3 |
| 20260506082818 | 46 | 346 | 0.0 | 2.0 | 0.00 | 0.00 | 0.00 | 71 | 1008.3 |
| 20260506082713 | 46 | 8 | 0.0 | 2.0 | 0.00 | 0.00 | 0.00 | 70 | 1008.6 |
| 20260506082606 | 46 | 14 | 1.0 | 4.0 | 0.00 | 0.00 | 0.00 | 69 | 1008.6 |
| 20260506082501 | 46 | 335 | 1.0 | 4.0 | 0.00 | 0.00 | 0.00 | 69 | 1008.6 |
| 20260506082355 | 46 | 8 | 2.0 | 4.0 | 0.00 | 0.00 | 0.00 | 69 | 1008.6 |
| 20260506082307 | 46 | 330 | 0.0 | 4.0 | 0.00 | 0.00 | 0.00 | 69 | 1008.6 |
| 20260506082250 | 46 | 316 | 0.0 | 4.0 | 0.00 | 0.00 | 0.00 | 69 | 1008.6 |
| 20260506082144 | 46 | 343 | 0.0 | 4.0 | 0.00 | 0.00 | 0.00 | 69 | 1008.3 |
| 20260506082039 | 46 | 330 | 2.0 | 4.0 | 0.00 | 0.00 | 0.00 | 69 | 1008.3 |
| 20260506081933 | 46 | 325 | 1.0 | 4.0 | 0.00 | 0.00 | 0.00 | 69 | 1008.3 |
| 20260506081827 | 46 | 317 | 1.0 | 4.0 | 0.00 | 0.00 | 0.00 | 69 | 1008.6 |
| 20260506081801 | 46 | 334 | 0.0 | 4.0 | 0.00 | 0.00 | 0.00 | 69 | 1008.6 |
| 20260506081722 | 46 | 319 | 3.0 | 4.0 | 0.00 | 0.00 | 0.00 | 68 | 1008.3 |
| 20260506081616 | 46 | 323 | 1.0 | 3.0 | 0.00 | 0.00 | 0.00 | 68 | 1008.6 |
| 20260506081510 | 46 | 319 | 1.0 | 3.0 | 0.00 | 0.00 | 0.00 | 68 | 1008.6 |
| 20260506081405 | 46 | 314 | 1.0 | 3.0 | 0.00 | 0.00 | 0.00 | 68 | 1008.6 |
| 20260506081258 | 46 | 2 | 1.0 | 3.0 | 0.00 | 0.00 | 0.00 | 67 | 1008.6 |
| 20260506081153 | 46 | 330 | 1.0 | 3.0 | 0.00 | 0.00 | 0.00 | 67 | 1008.6 |
| 20260506081047 | 46 | 348 | 1.0 | 3.0 | 0.00 | 0.00 | 0.00 | 67 | 1008.6 |
| 20260506080941 | 46 | 330 | 0.0 | 3.0 | 0.00 | 0.00 | 0.00 | 67 | 1008.3 |
| 20260506080837 | 46 | 333 | 0.0 | 3.0 | 0.00 | 0.00 | 0.00 | 67 | 1008.6 |
| 20260506080747 | 46 | 333 | 0.0 | 3.0 | 0.00 | 0.00 | 0.00 | 67 | 1008.6 |
| 20260506080730 | 46 | 15 | 2.0 | 3.0 | 0.00 | 0.00 | 0.00 | 67 | 1008.6 |
| 20260506080625 | 46 | 335 | 0.0 | 2.0 | 0.00 | 0.00 | 0.00 | 67 | 1008.6 |
| 20260506080519 | 46 | 334 | 0.0 | 2.0 | 0.00 | 0.00 | 0.00 | 67 | 1008.6 |
| 20260506080416 | 46 | 17 | 0.0 | 2.0 | 0.00 | 0.00 | 0.00 | 68 | 1008.6 |
| 20260506080307 | 46 | 329 | 0.0 | 3.0 | 0.00 | 0.00 | 0.00 | 67 | 1008.3 |
| 20260506080240 | 46 | 333 | 0.0 | 3.0 | 0.00 | 0.00 | 0.00 | 67 | 1008.3 |
| 20260506080202 | 46 | 332 | 0.0 | 4.0 | 0.00 | 0.00 | 0.00 | 67 | 1008.6 |
| 20260506073437 | 47 | 318 | 2.0 | 3.0 | 0.00 | 0.00 | 0.00 | 63 | 1008.3 |
| 20260506073331 | 47 | 320 | 3.0 | 3.0 | 0.00 | 0.00 | 0.00 | 63 | 1007.9 |
| 20260506073226 | 47 | 305 | 1.0 | 3.0 | 0.00 | 0.00 | 0.00 | 63 | 1008.3 |
| 20260506073159 | 47 | 321 | 3.0 | 3.0 | 0.00 | 0.00 | 0.00 | 63 | 1008.3 |
| 20260506073120 | 47 | 343 | 3.0 | 3.0 | 0.00 | 0.00 | 0.00 | 64 | 1008.3 |
| 20260506073015 | 47 | 346 | 1.0 | 3.0 | 0.00 | 0.00 | 0.00 | 64 | 1008.3 |
| 20260506072910 | 47 | 357 | 2.0 | 3.0 | 0.00 | 0.00 | 0.00 | 64 | 1008.3 |
| 20260506072804 | 47 | 288 | 0.0 | 3.0 | 0.00 | 0.00 | 0.00 | 64 | 1007.9 |
| 20260506072658 | 47 | 349 | 1.0 | 3.0 | 0.00 | 0.00 | 0.00 | 64 | 1007.9 |
| 20260506072551 | 47 | 327 | 1.0 | 3.0 | 0.00 | 0.00 | 0.00 | 63 | 1008.3 |
| 20260506072445 | 47 | 327 | 2.0 | 3.0 | 0.00 | 0.00 | 0.00 | 63 | 1008.3 |
| 20260506072339 | 47 | 319 | 1.0 | 3.0 | 0.00 | 0.00 | 0.00 | 63 | 1008.3 |
| 20260506072233 | 47 | 345 | 2.0 | 3.0 | 0.00 | 0.00 | 0.00 | 63 | 1008.3 |
| 20260506072145 | 47 | 344 | 2.0 | 3.0 | 0.00 | 0.00 | 0.00 | 63 | 1008.3 |
| 20260506072128 | 47 | 336 | 1.0 | 3.0 | 0.00 | 0.00 | 0.00 | 63 | 1008.3 |
| 20260506072023 | 47 | 319 | 1.0 | 3.0 | 0.00 | 0.00 | 0.00 | 63 | 1008.3 |
| 20260506071916 | 47 | 330 | 1.0 | 3.0 | 0.00 | 0.00 | 0.00 | 63 | 1008.3 |
| 20260506071810 | 47 | 326 | 1.0 | 6.0 | 0.00 | 0.00 | 0.00 | 63 | 1007.9 |
| 20260506071706 | 47 | 40 | 1.0 | 6.0 | 0.00 | 0.00 | 0.00 | 63 | 1008.3 |
| 20260506071638 | 47 | 350 | 2.0 | 6.0 | 0.00 | 0.00 | 0.00 | 63 | 1008.3 |
| 20260506071600 | 47 | 8 | 1.0 | 6.0 | 0.00 | 0.00 | 0.00 | 63 | 1008.3 |
| 20260506071453 | 47 | 333 | 2.0 | 6.0 | 0.00 | 0.00 | 0.00 | 63 | 1008.6 |
| 20260506071348 | 47 | 339 | 0.0 | 6.0 | 0.00 | 0.00 | 0.00 | 63 | 1008.6 |
| 20260506071242 | 47 | 316 | 1.0 | 6.0 | 0.00 | 0.00 | 0.00 | 62 | 1008.6 |
| 20260506071136 | 47 | 336 | 0.0 | 6.0 | 0.00 | 0.00 | 0.00 | 62 | 1008.3 |
| 20260506071031 | 47 | 337 | 2.0 | 6.0 | 0.00 | 0.00 | 0.00 | 62 | 1008.3 |
| 20260506070924 | 47 | 4 | 2.0 | 6.0 | 0.00 | 0.00 | 0.00 | 62 | 1008.3 |
| 20260506070819 | 47 | 344 | 3.0 | 6.0 | 0.00 | 0.00 | 0.00 | 62 | 1008.3 |
| 20260506070713 | 47 | 324 | 1.0 | 6.0 | 0.00 | 0.00 | 0.00 | 62 | 1008.6 |
| 20260506070625 | 47 | 306 | 1.0 | 6.0 | 0.00 | 0.00 | 0.00 | 62 | 1008.3 |
| 20260506070607 | 47 | 327 | 3.0 | 6.0 | 0.00 | 0.00 | 0.00 | 62 | 1008.3 |
| 20260506070502 | 47 | 321 | 0.0 | 6.0 | 0.00 | 0.00 | 0.00 | 62 | 1008.3 |
| 20260506070355 | 47 | 315 | 1.0 | 6.0 | 0.00 | 0.00 | 0.00 | 62 | 1008.3 |
| 20260506070250 | 47 | 331 | 0.0 | 6.0 | 0.00 | 0.00 | 0.00 | 62 | 1008.3 |
| 20260506070144 | 47 | 330 | 1.0 | 6.0 | 0.00 | 0.00 | 0.00 | 62 | 1008.3 |
| 20260506070118 | 47 | 309 | 1.0 | 6.0 | 0.00 | 0.00 | 0.00 | 62 | 1008.3 |
| 20260506062431 | 48 | 326 | 0.0 | 3.0 | 0.00 | 0.00 | 0.00 | 59 | 1008.6 |
| 20260506062325 | 48 | 330 | 0.0 | 3.0 | 0.00 | 0.00 | 0.00 | 59 | 1008.6 |
| 20260506062300 | 48 | 287 | 1.0 | 4.0 | 0.00 | 0.00 | 0.00 | 58 | 1008.6 |
| 20260506062255 | 48 | 248 | 0.0 | 3.0 | 0.00 | 0.00 | 0.00 | 59 | 1008.6 |
| 20260506062245 | 48 | 184 | 0.0 | 3.0 | 0.00 | 0.00 | 0.00 | 59 | 1008.3 |
| 20260506062007 | 48 | 341 | 1.0 | 7.0 | 0.00 | 0.00 | 0.00 | 58 | 1008.6 |
| 20260506061901 | 48 | 336 | 2.0 | 7.0 | 0.00 | 0.00 | 0.00 | 58 | 1008.6 |
| 20260506061756 | 48 | 324 | 2.0 | 7.0 | 0.00 | 0.00 | 0.00 | 58 | 1008.6 |
| 20260506061747 | 48 | 326 | 2.0 | 7.0 | 0.00 | 0.00 | 0.00 | 58 | 1008.3 |
| 20260506061738 | 48 | 315 | 0.0 | 7.0 | 0.00 | 0.00 | 0.00 | 58 | 1008.6 |
| 20260506061439 | 48 | 329 | 1.0 | 7.0 | 0.00 | 0.00 | 0.00 | 58 | 1008.6 |
| 20260506061334 | 48 | 328 | 1.0 | 7.0 | 0.00 | 0.00 | 0.00 | 57 | 1008.3 |
| 20260506061249 | 48 | 326 | 2.0 | 7.0 | 0.00 | 0.00 | 0.00 | 57 | 1008.3 |
| 20260506061240 | 48 | 326 | 2.0 | 7.0 | 0.00 | 0.00 | 0.00 | 57 | 1008.6 |
| 20260506061229 | 48 | 330 | 4.0 | 6.0 | 0.00 | 0.00 | 0.00 | 58 | 1008.6 |
| 20260506060911 | 48 | 309 | 1.0 | 3.0 | 0.00 | 0.00 | 0.00 | 58 | 1008.6 |
| 20260506060805 | 48 | 27 | 0.0 | 3.0 | 0.00 | 0.00 | 0.00 | 57 | 1008.6 |
| 20260506060737 | 48 | 305 | 2.0 | 3.0 | 0.00 | 0.00 | 0.00 | 57 | 1008.3 |
| 20260506060732 | 48 | 330 | 2.0 | 3.0 | 0.00 | 0.00 | 0.00 | 57 | 1008.6 |
| 20260506060723 | 48 | 332 | 1.0 | 3.0 | 0.00 | 0.00 | 0.00 | 57 | 1008.3 |
| 20260506060447 | 48 | 325 | 1.0 | 3.0 | 0.00 | 0.00 | 0.00 | 57 | 1008.3 |
| 20260506060342 | 48 | 322 | 1.0 | 3.0 | 0.00 | 0.00 | 0.00 | 57 | 1008.6 |
| 20260506060235 | 48 | 276 | 2.0 | 3.0 | 0.00 | 0.00 | 0.00 | 57 | 1008.6 |
| 20260506060130 | 48 | 298 | 2.0 | 3.0 | 0.00 | 0.00 | 0.00 | 58 | 1008.3 |
| 20260506051354 | 49 | 341 | 1.0 | 2.0 | 0.00 | 0.00 | 0.00 | 57 | 1008.6 |
| 20260506051316 | 49 | 282 | 0.0 | 2.0 | 0.00 | 0.00 | 0.00 | 57 | 1008.6 |
| 20260506051209 | 49 | 300 | 0.0 | 2.0 | 0.00 | 0.00 | 0.00 | 58 | 1008.6 |
| 20260506051103 | 49 | 308 | 0.0 | 2.0 | 0.00 | 0.00 | 0.00 | 57 | 1008.3 |
| 20260506050957 | 49 | 324 | 0.0 | 3.0 | 0.00 | 0.00 | 0.00 | 56 | 1008.3 |
| 20260506050851 | 49 | 278 | 1.0 | 3.0 | 0.00 | 0.00 | 0.00 | 58 | 1007.9 |
| 20260506050746 | 49 | 227 | 1.0 | 3.0 | 0.00 | 0.00 | 0.00 | 57 | 1008.6 |
| 20260506050640 | 49 | 340 | 1.0 | 3.0 | 0.00 | 0.00 | 0.00 | 56 | 1008.6 |
| 20260506050534 | 49 | 319 | 1.0 | 3.0 | 0.00 | 0.00 | 0.00 | 57 | 1008.3 |
| 20260506050430 | 49 | 291 | 0.0 | 4.0 | 0.00 | 0.00 | 0.00 | 57 | 1008.3 |
| 20260506050340 | 49 | 290 | 0.0 | 4.0 | 0.00 | 0.00 | 0.00 | 57 | 1008.3 |
| 20260506050323 | 49 | 300 | 0.0 | 4.0 | 0.00 | 0.00 | 0.00 | 57 | 1008.3 |
| 20260506050217 | 49 | 277 | 0.0 | 4.0 | 0.00 | 0.00 | 0.00 | 56 | 1008.3 |
| 20260506050116 | 49 | 258 | 0.0 | 4.0 | 0.00 | 0.00 | 0.00 | 56 | 1008.3 |
| 20260506045121 | 49 | 276 | 0.0 | 4.0 | 0.00 | 0.00 | 0.00 | 57 | 1008.3 |
| 20260506045015 | 49 | 250 | 1.0 | 4.0 | 0.00 | 0.00 | 0.00 | 56 | 1008.3 |
| 20260506044909 | 49 | 325 | 0.0 | 3.0 | 0.00 | 0.00 | 0.00 | 57 | 1008.3 |
| 20260506044820 | 49 | 320 | 1.0 | 6.0 | 0.00 | 0.00 | 0.00 | 56 | 1007.9 |
| 20260506044804 | 49 | 351 | 2.0 | 6.0 | 0.00 | 0.00 | 0.00 | 57 | 1007.9 |
| 20260506044658 | 49 | 314 | 0.0 | 6.0 | 0.00 | 0.00 | 0.00 | 57 | 1007.9 |
| 20260506044552 | 49 | 325 | 0.0 | 6.0 | 0.00 | 0.00 | 0.00 | 57 | 1007.9 |
| 20260506044447 | 49 | 333 | 2.0 | 6.0 | 0.00 | 0.00 | 0.00 | 57 | 1007.9 |
| 20260506044340 | 49 | 340 | 1.0 | 6.0 | 0.00 | 0.00 | 0.00 | 57 | 1007.9 |
| 20260506044314 | 49 | 318 | 1.0 | 6.0 | 0.00 | 0.00 | 0.00 | 57 | 1007.9 |
| 20260506044235 | 49 | 303 | 1.0 | 6.0 | 0.00 | 0.00 | 0.00 | 58 | 1008.3 |
| 20260506044130 | 49 | 294 | 0.0 | 6.0 | 0.00 | 0.00 | 0.00 | 57 | 1008.3 |
| 20260506044023 | 49 | 307 | 1.0 | 6.0 | 0.00 | 0.00 | 0.00 | 56 | 1008.3 |
| 20260506043919 | 49 | 312 | 1.0 | 6.0 | 0.00 | 0.00 | 0.00 | 56 | 1007.9 |
| 20260506043812 | 49 | 316 | 1.0 | 3.0 | 0.00 | 0.00 | 0.00 | 57 | 1007.9 |
| 20260506043707 | 49 | 341 | 0.0 | 3.0 | 0.00 | 0.00 | 0.00 | 57 | 1007.9 |
| 20260506043601 | 49 | 7 | 1.0 | 3.0 | 0.00 | 0.00 | 0.00 | 57 | 1007.9 |
| 20260506043455 | 49 | 298 | 0.0 | 3.0 | 0.00 | 0.00 | 0.00 | 57 | 1008.3 |
| 20260506043349 | 49 | 226 | 0.0 | 3.0 | 0.00 | 0.00 | 0.00 | 57 | 1008.3 |
| 20260506043301 | 49 | 226 | 1.0 | 3.0 | 0.00 | 0.00 | 0.00 | 57 | 1007.9 |
| 20260506043244 | 49 | 269 | 1.0 | 3.0 | 0.00 | 0.00 | 0.00 | 57 | 1007.9 |
| 20260506043138 | 49 | 312 | 2.0 | 3.0 | 0.00 | 0.00 | 0.00 | 57 | 1007.9 |
| 20260506043032 | 49 | 312 | 1.0 | 3.0 | 0.00 | 0.00 | 0.00 | 56 | 1007.9 |
| 20260506042927 | 49 | 318 | 2.0 | 3.0 | 0.00 | 0.00 | 0.00 | 57 | 1007.9 |
| 20260506042821 | 49 | 280 | 1.0 | 3.0 | 0.00 | 0.00 | 0.00 | 57 | 1007.9 |
| 20260506042755 | 49 | 281 | 1.0 | 3.0 | 0.00 | 0.00 | 0.00 | 57 | 1007.9 |
| 20260506042715 | 49 | 322 | 1.0 | 3.0 | 0.00 | 0.00 | 0.00 | 57 | 1007.9 |
| 20260506042610 | 49 | 328 | 1.0 | 3.0 | 0.00 | 0.00 | 0.00 | 57 | 1007.9 |
| 20260506042503 | 49 | 324 | 1.0 | 3.0 | 0.00 | 0.00 | 0.00 | 57 | 1008.3 |
| 20260506042359 | 49 | 324 | 0.0 | 3.0 | 0.00 | 0.00 | 0.00 | 57 | 1007.9 |
| 20260506042253 | 49 | 334 | 0.0 | 3.0 | 0.00 | 0.00 | 0.00 | 56 | 1008.3 |
| 20260506042148 | 49 | 344 | 1.0 | 3.0 | 0.00 | 0.00 | 0.00 | 56 | 1008.3 |
| 20260506042041 | 49 | 328 | 1.0 | 2.0 | 0.00 | 0.00 | 0.00 | 57 | 1007.9 |
| 20260506041935 | 49 | 288 | 1.0 | 2.0 | 0.00 | 0.00 | 0.00 | 57 | 1007.9 |
| 20260506041830 | 49 | 314 | 1.0 | 2.0 | 0.00 | 0.00 | 0.00 | 57 | 1007.9 |
| 20260506041741 | 49 | 315 | 1.0 | 2.0 | 0.00 | 0.00 | 0.00 | 57 | 1007.9 |
| 20260506041725 | 49 | 337 | 1.0 | 2.0 | 0.00 | 0.00 | 0.00 | 57 | 1007.9 |
| 20260506041620 | 49 | 305 | 0.0 | 2.0 | 0.00 | 0.00 | 0.00 | 58 | 1008.3 |
| 20260506041513 | 49 | 161 | 0.0 | 2.0 | 0.00 | 0.00 | 0.00 | 57 | 1007.9 |
| 20260506041408 | 49 | 289 | 0.0 | 2.0 | 0.00 | 0.00 | 0.00 | 57 | 1007.9 |
| 20260506041302 | 49 | 289 | 0.0 | 2.0 | 0.00 | 0.00 | 0.00 | 57 | 1007.9 |
| 20260506041236 | 49 | 290 | 0.0 | 2.0 | 0.00 | 0.00 | 0.00 | 57 | 1007.9 |
| 20260506041157 | 49 | 290 | 0.0 | 2.0 | 0.00 | 0.00 | 0.00 | 57 | 1007.9 |
| 20260506041050 | 49 | 310 | 0.0 | 2.0 | 0.00 | 0.00 | 0.00 | 57 | 1007.9 |
| 20260506040944 | 49 | 302 | 0.0 | 3.0 | 0.00 | 0.00 | 0.00 | 58 | 1007.9 |
| 20260506040837 | 49 | 320 | 0.0 | 3.0 | 0.00 | 0.00 | 0.00 | 58 | 1008.3 |
| 20260506040733 | 49 | 5 | 1.0 | 3.0 | 0.00 | 0.00 | 0.00 | 57 | 1008.3 |
| 20260506040627 | 49 | 272 | 2.0 | 3.0 | 0.00 | 0.00 | 0.00 | 56 | 1008.3 |
| 20260506040533 | 49 | 312 | 0.0 | 3.0 | 0.00 | 0.00 | 0.00 | 56 | 1008.3 |
| 20260506040415 | 49 | 324 | 0.0 | 3.0 | 0.00 | 0.00 | 0.00 | 57 | 1008.3 |
| 20260506040221 | 49 | 332 | 0.0 | 3.0 | 0.00 | 0.00 | 0.00 | 56 | 1007.9 |
| 20260506040204 | 49 | 332 | 0.0 | 3.0 | 0.00 | 0.00 | 0.00 | 56 | 1007.9 |
| 20260506035952 | 49 | 283 | 1.0 | 2.0 | 0.00 | 0.00 | 0.03 | 56 | 1008.3 |
| 20260506035847 | 49 | 320 | 0.0 | 2.0 | 0.00 | 0.00 | 0.03 | 56 | 1008.3 |
| 20260506035741 | 49 | 350 | 1.0 | 2.0 | 0.00 | 0.00 | 0.03 | 56 | 1008.3 |
| 20260506035715 | 49 | 327 | 1.0 | 2.0 | 0.00 | 0.00 | 0.03 | 56 | 1008.3 |
| 20260506035635 | 49 | 287 | 1.0 | 2.0 | 0.00 | 0.00 | 0.03 | 57 | 1008.3 |
| 20260506035530 | 49 | 276 | 0.0 | 1.0 | 0.00 | 0.00 | 0.03 | 57 | 1008.6 |
| 20260506035424 | 49 | 276 | 0.0 | 1.0 | 0.00 | 0.00 | 0.03 | 56 | 1008.3 |
| 20260506035319 | 49 | 277 | 0.0 | 3.0 | 0.00 | 0.00 | 0.03 | 56 | 1008.3 |
| 20260506035213 | 49 | 284 | 0.0 | 3.0 | 0.00 | 0.00 | 0.03 | 56 | 1008.3 |
| 20260506035107 | 49 | 290 | 0.0 | 3.0 | 0.00 | 0.00 | 0.03 | 55 | 1008.3 |
| 20260506035002 | 49 | 300 | 0.0 | 3.0 | 0.00 | 0.00 | 0.03 | 56 | 1008.6 |
| 20260506034856 | 49 | 241 | 1.0 | 3.0 | 0.00 | 0.00 | 0.03 | 57 | 1008.3 |
| 20260506034749 | 49 | 203 | 0.0 | 3.0 | 0.00 | 0.00 | 0.03 | 57 | 1008.6 |
| 20260506034643 | 49 | 222 | 0.0 | 3.0 | 0.00 | 0.00 | 0.03 | 57 | 1008.3 |
| 20260506034537 | 49 | 219 | 0.0 | 3.0 | 0.00 | 0.00 | 0.03 | 57 | 1008.3 |
| 20260506034431 | 49 | 213 | 1.0 | 3.0 | 0.00 | 0.00 | 0.03 | 57 | 1008.3 |
| 20260506034326 | 49 | 287 | 0.0 | 2.0 | 0.00 | 0.00 | 0.03 | 55 | 1008.3 |
| 20260506034219 | 49 | 349 | 0.0 | 2.0 | 0.00 | 0.00 | 0.03 | 56 | 1008.3 |
| 20260506034153 | 49 | 311 | 0.0 | 2.0 | 0.00 | 0.00 | 0.03 | 56 | 1008.3 |
| 20260506034114 | 49 | 281 | 0.0 | 2.0 | 0.00 | 0.00 | 0.03 | 56 | 1008.3 |
| 20260506034009 | 49 | 283 | 0.0 | 2.0 | 0.00 | 0.00 | 0.03 | 56 | 1008.3 |
| 20260506033903 | 49 | 254 | 0.0 | 4.0 | 0.00 | 0.00 | 0.03 | 56 | 1008.6 |
| 20260506033758 | 49 | 247 | 0.0 | 4.0 | 0.00 | 0.00 | 0.03 | 55 | 1008.6 |
| 20260506033652 | 49 | 257 | 1.0 | 4.0 | 0.00 | 0.00 | 0.03 | 55 | 1008.3 |
| 20260506033546 | 49 | 266 | 0.0 | 4.0 | 0.00 | 0.00 | 0.03 | 56 | 1008.6 |
| 20260506033441 | 49 | 265 | 2.0 | 4.0 | 0.00 | 0.00 | 0.03 | 55 | 1008.3 |
| 20260506033336 | 49 | 287 | 1.0 | 4.0 | 0.00 | 0.00 | 0.03 | 55 | 1008.3 |
| 20260506033229 | 49 | 286 | 1.0 | 4.0 | 0.00 | 0.00 | 0.03 | 55 | 1008.3 |
| 20260506033124 | 49 | 201 | 0.0 | 4.0 | 0.00 | 0.00 | 0.03 | 55 | 1008.3 |
| 20260506033018 | 49 | 235 | 0.0 | 4.0 | 0.00 | 0.00 | 0.03 | 55 | 1008.3 |
| 20260506032913 | 49 | 188 | 1.0 | 3.0 | 0.00 | 0.00 | 0.03 | 55 | 1008.3 |
| 20260506032806 | 49 | 241 | 0.0 | 3.0 | 0.00 | 0.00 | 0.03 | 55 | 1008.3 |
| 20260506032701 | 49 | 276 | 1.0 | 3.0 | 0.00 | 0.00 | 0.03 | 54 | 1008.3 |
| 20260506032634 | 49 | 198 | 2.0 | 3.0 | 0.00 | 0.00 | 0.03 | 55 | 1008.3 |
| 20260506032556 | 49 | 316 | 0.0 | 1.0 | 0.00 | 0.00 | 0.03 | 56 | 1008.3 |
| 20260506032449 | 49 | 319 | 0.0 | 1.0 | 0.00 | 0.00 | 0.03 | 55 | 1008.3 |
| 20260506032344 | 49 | 307 | 0.0 | 1.0 | 0.00 | 0.00 | 0.03 | 55 | 1008.6 |
| 20260506032239 | 49 | 250 | 0.0 | 3.0 | 0.00 | 0.00 | 0.03 | 55 | 1008.6 |
| 20260506032133 | 49 | 232 | 0.0 | 3.0 | 0.00 | 0.00 | 0.03 | 56 | 1008.3 |
| 20260506032027 | 49 | 232 | 0.0 | 3.0 | 0.00 | 0.00 | 0.03 | 56 | 1008.6 |
| 20260506031921 | 49 | 232 | 0.0 | 3.0 | 0.00 | 0.00 | 0.03 | 54 | 1008.6 |
| 20260506031814 | 49 | 230 | 1.0 | 3.0 | 0.00 | 0.00 | 0.03 | 54 | 1008.3 |
| 20260506031710 | 50 | 238 | 0.0 | 3.0 | 0.00 | 0.00 | 0.03 | 54 | 1008.3 |
| 20260506031621 | 50 | 258 | 0.0 | 3.0 | 0.00 | 0.00 | 0.03 | 55 | 1008.3 |
| 20260506031604 | 50 | 259 | 0.0 | 3.0 | 0.00 | 0.00 | 0.03 | 56 | 1008.3 |
| 20260506031459 | 49 | 272 | 0.0 | 3.0 | 0.00 | 0.00 | 0.03 | 54 | 1008.3 |
| 20260506031353 | 49 | 267 | 1.0 | 3.0 | 0.00 | 0.00 | 0.03 | 54 | 1008.3 |
| 20260506031247 | 49 | 283 | 0.0 | 3.0 | 0.00 | 0.00 | 0.03 | 54 | 1008.3 |
| 20260506031142 | 49 | 278 | 0.0 | 3.0 | 0.00 | 0.00 | 0.03 | 55 | 1008.3 |
| 20260506031116 | 49 | 259 | 0.0 | 3.0 | 0.00 | 0.00 | 0.03 | 55 | 1008.3 |
| 20260506031035 | 50 | 255 | 0.0 | 3.0 | 0.00 | 0.00 | 0.03 | 55 | 1008.3 |
| 20260506030942 | 50 | 319 | 0.0 | 3.0 | 0.00 | 0.00 | 0.03 | 54 | 1007.9 |
| 20260506030825 | 50 | 250 | 1.0 | 3.0 | 0.00 | 0.00 | 0.03 | 54 | 1008.3 |
| 20260506030718 | 50 | 193 | 0.0 | 3.0 | 0.00 | 0.00 | 0.03 | 54 | 1008.3 |
| 20260506030612 | 50 | 269 | 0.0 | 3.0 | 0.00 | 0.00 | 0.03 | 54 | 1008.3 |
| 20260506030506 | 50 | 275 | 0.0 | 3.0 | 0.00 | 0.00 | 0.03 | 54 | 1008.3 |
| 20260506030400 | 50 | 311 | 2.0 | 3.0 | 0.00 | 0.00 | 0.03 | 54 | 1008.3 |
| 20260506030254 | 50 | 232 | 0.0 | 2.0 | 0.00 | 0.00 | 0.03 | 55 | 1008.3 |
| 20260506030149 | 50 | 232 | 0.0 | 2.0 | 0.00 | 0.00 | 0.03 | 54 | 1008.3 |
| 20260506030056 | 50 | 223 | 0.0 | 2.0 | 0.00 | 0.00 | 0.03 | 55 | 1008.3 |
| 20260506025937 | 50 | 240 | 0.0 | 2.0 | 0.00 | 0.00 | 0.03 | 55 | 1008.3 |
| 20260506025831 | 50 | 240 | 0.0 | 2.0 | 0.00 | 0.00 | 0.03 | 54 | 1007.9 |
| 20260506025726 | 50 | 259 | 0.0 | 2.0 | 0.00 | 0.00 | 0.03 | 54 | 1008.6 |
| 20260506025619 | 50 | 314 | 1.0 | 2.0 | 0.00 | 0.00 | 0.03 | 55 | 1008.6 |
| 20260506025551 | 50 | 301 | 0.0 | 1.0 | 0.00 | 0.00 | 0.03 | 55 | 1008.6 |
| 20260506025513 | 50 | 36 | 1.0 | 1.0 | 0.00 | 0.00 | 0.03 | 54 | 1008.3 |
| 20260506025407 | 50 | 252 | 0.0 | 3.0 | 0.00 | 0.00 | 0.03 | 54 | 1008.3 |
| 20260506025305 | 50 | 182 | 0.0 | 3.0 | 0.00 | 0.00 | 0.03 | 54 | 1008.3 |
| 20260506025155 | 50 | 274 | 0.0 | 3.0 | 0.00 | 0.00 | 0.03 | 54 | 1008.3 |
| 20260506025050 | 50 | 288 | 0.0 | 3.0 | 0.00 | 0.00 | 0.03 | 54 | 1008.3 |
| 20260506024957 | 50 | 293 | 0.0 | 3.0 | 0.00 | 0.00 | 0.03 | 54 | 1008.6 |
| 20260506024838 | 50 | 233 | 0.0 | 3.0 | 0.00 | 0.00 | 0.03 | 54 | 1008.6 |
| 20260506024734 | 50 | 259 | 0.0 | 3.0 | 0.00 | 0.00 | 0.03 | 55 | 1008.3 |
| 20260506024628 | 50 | 226 | 0.0 | 3.0 | 0.00 | 0.00 | 0.03 | 56 | 1008.3 |
| 20260506024539 | 50 | 226 | 0.0 | 3.0 | 0.00 | 0.00 | 0.03 | 56 | 1008.3 |
| 20260506024522 | 50 | 226 | 0.0 | 3.0 | 0.00 | 0.00 | 0.03 | 55 | 1008.6 |
| 20260506024416 | 50 | 250 | 0.0 | 2.0 | 0.00 | 0.00 | 0.03 | 54 | 1008.6 |
| 20260506024311 | 50 | 244 | 0.0 | 2.0 | 0.00 | 0.00 | 0.03 | 54 | 1008.6 |
| 20260506024218 | 50 | 236 | 0.0 | 2.0 | 0.00 | 0.00 | 0.03 | 55 | 1008.3 |
| 20260506024100 | 50 | 219 | 0.0 | 2.0 | 0.00 | 0.00 | 0.03 | 54 | 1008.3 |
| 20260506024034 | 50 | 240 | 0.0 | 2.0 | 0.00 | 0.00 | 0.03 | 54 | 1007.9 |
| 20260506023954 | 50 | 259 | 1.0 | 2.0 | 0.00 | 0.00 | 0.03 | 54 | 1007.9 |
| 20260506023849 | 50 | 289 | 1.0 | 2.0 | 0.00 | 0.00 | 0.03 | 54 | 1008.3 |
| 20260506023756 | 50 | 248 | 0.0 | 2.0 | 0.00 | 0.00 | 0.03 | 54 | 1008.3 |
| 20260506023637 | 50 | 248 | 0.0 | 2.0 | 0.00 | 0.00 | 0.03 | 53 | 1008.3 |
| 20260506023531 | 50 | 223 | 2.0 | 2.0 | 0.00 | 0.00 | 0.03 | 53 | 1008.3 |
| 20260506023426 | 50 | 210 | 1.0 | 3.0 | 0.00 | 0.00 | 0.03 | 54 | 1008.3 |
| 20260506023321 | 50 | 219 | 0.0 | 3.0 | 0.00 | 0.00 | 0.03 | 53 | 1007.9 |
| 20260506023215 | 50 | 276 | 0.0 | 3.0 | 0.00 | 0.00 | 0.03 | 54 | 1008.3 |
| 20260506023110 | 50 | 293 | 0.0 | 3.0 | 0.00 | 0.00 | 0.03 | 54 | 1008.3 |
| 20260506023021 | 50 | 293 | 0.0 | 6.0 | 0.00 | 0.00 | 0.03 | 54 | 1008.3 |
| 20260506023005 | 50 | 293 | 0.0 | 6.0 | 0.00 | 0.00 | 0.03 | 54 | 1008.3 |
| 20260506022859 | 50 | 302 | 0.0 | 6.0 | 0.00 | 0.00 | 0.03 | 54 | 1008.3 |
| 20260506022753 | 50 | 24 | 0.0 | 6.0 | 0.00 | 0.00 | 0.03 | 53 | 1008.3 |
| 20260506022647 | 50 | 196 | 1.0 | 6.0 | 0.00 | 0.00 | 0.03 | 53 | 1008.3 |
| 20260506022541 | 50 | 87 | 0.0 | 6.0 | 0.00 | 0.00 | 0.03 | 54 | 1008.3 |
| 20260506022514 | 50 | 48 | 1.0 | 6.0 | 0.00 | 0.00 | 0.03 | 53 | 1008.3 |
| 20260506022435 | 50 | 318 | 1.0 | 6.0 | 0.00 | 0.00 | 0.03 | 53 | 1008.3 |
| 20260506022330 | 50 | 227 | 0.0 | 6.0 | 0.00 | 0.00 | 0.03 | 53 | 1008.3 |
| 20260506022224 | 50 | 238 | 0.0 | 6.0 | 0.00 | 0.00 | 0.03 | 53 | 1008.6 |
| 20260506022119 | 50 | 246 | 3.0 | 6.0 | 0.00 | 0.00 | 0.03 | 52 | 1008.6 |
| 20260506022013 | 50 | 263 | 0.0 | 3.0 | 0.00 | 0.00 | 0.03 | 53 | 1008.6 |
| 20260506021908 | 50 | 305 | 0.0 | 4.0 | 0.00 | 0.00 | 0.03 | 54 | 1008.6 |
| 20260506021801 | 50 | 278 | 1.0 | 4.0 | 0.00 | 0.00 | 0.03 | 52 | 1008.6 |
| 20260506021655 | 50 | 193 | 2.0 | 4.0 | 0.00 | 0.00 | 0.03 | 53 | 1008.3 |
| 20260506021549 | 51 | 260 | 1.0 | 4.0 | 0.00 | 0.00 | 0.03 | 53 | 1008.6 |
| 20260506021500 | 51 | 247 | 1.0 | 4.0 | 0.00 | 0.00 | 0.03 | 54 | 1008.3 |
| 20260506021443 | 51 | 264 | 1.0 | 4.0 | 0.00 | 0.00 | 0.03 | 53 | 1008.3 |
| 20260506021337 | 51 | 180 | 1.0 | 4.0 | 0.00 | 0.00 | 0.03 | 53 | 1008.6 |
| 20260506021231 | 51 | 239 | 0.0 | 4.0 | 0.00 | 0.00 | 0.03 | 53 | 1008.6 |
| 20260506021125 | 51 | 145 | 1.0 | 4.0 | 0.00 | 0.00 | 0.03 | 54 | 1008.3 |
| 20260506021020 | 51 | 284 | 3.0 | 4.0 | 0.00 | 0.00 | 0.03 | 53 | 1008.3 |
| 20260506020954 | 51 | 298 | 3.0 | 4.0 | 0.00 | 0.00 | 0.03 | 54 | 1008.3 |
| 20260506020915 | 51 | 226 | 2.0 | 4.0 | 0.00 | 0.00 | 0.03 | 53 | 1008.3 |
| 20260506020809 | 51 | 203 | 0.0 | 4.0 | 0.00 | 0.00 | 0.03 | 54 | 1008.6 |
| 20260506020704 | 51 | 221 | 0.0 | 4.0 | 0.00 | 0.00 | 0.03 | 53 | 1008.3 |
| 20260506020557 | 51 | 206 | 0.0 | 4.0 | 0.00 | 0.00 | 0.03 | 54 | 1008.3 |
| 20260506020452 | 51 | 219 | 0.0 | 4.0 | 0.00 | 0.00 | 0.03 | 54 | 1008.3 |
| 20260506020346 | 51 | 210 | 0.0 | 4.0 | 0.00 | 0.00 | 0.03 | 53 | 1008.3 |
| 20260506020241 | 51 | 245 | 1.0 | 4.0 | 0.00 | 0.00 | 0.03 | 51 | 1008.3 |
| 20260506020135 | 51 | 295 | 3.0 | 4.0 | 0.00 | 0.00 | 0.03 | 51 | 1008.3 |
| 20260506020031 | 51 | 221 | 2.0 | 3.0 | 0.00 | 0.00 | 0.03 | 52 | 1008.3 |
| 20260506015941 | 51 | 229 | 2.0 | 8.0 | 0.00 | 0.00 | 0.03 | 52 | 1008.3 |
| 20260506015924 | 51 | 244 | 1.0 | 8.0 | 0.00 | 0.00 | 0.03 | 52 | 1008.3 |
| 20260506015818 | 51 | 258 | 0.0 | 8.0 | 0.00 | 0.00 | 0.03 | 53 | 1007.9 |
| 20260506015713 | 51 | 232 | 0.0 | 8.0 | 0.00 | 0.00 | 0.03 | 53 | 1008.3 |
| 20260506015607 | 51 | 240 | 0.0 | 8.0 | 0.00 | 0.00 | 0.03 | 53 | 1008.3 |
| 20260506015502 | 51 | 235 | 1.0 | 8.0 | 0.00 | 0.00 | 0.03 | 52 | 1007.9 |
| 20260506015435 | 51 | 299 | 0.0 | 8.0 | 0.00 | 0.00 | 0.03 | 53 | 1007.9 |
| 20260506015356 | 51 | 250 | 0.0 | 8.0 | 0.00 | 0.00 | 0.03 | 53 | 1007.9 |
| 20260506015250 | 51 | 227 | 0.0 | 8.0 | 0.00 | 0.00 | 0.03 | 52 | 1007.9 |
| 20260506015145 | 51 | 250 | 0.0 | 8.0 | 0.00 | 0.00 | 0.03 | 50 | 1007.9 |
| 20260506015039 | 51 | 221 | 3.0 | 8.0 | 0.00 | 0.00 | 0.03 | 51 | 1007.9 |
| 20260506014932 | 51 | 311 | 0.0 | 3.0 | 0.00 | 0.00 | 0.03 | 52 | 1007.9 |
| 20260506014827 | 51 | 224 | 0.0 | 3.0 | 0.00 | 0.00 | 0.03 | 51 | 1007.9 |
| 20260506014724 | 51 | 236 | 1.0 | 3.0 | 0.00 | 0.00 | 0.03 | 51 | 1007.9 |
| 20260506014618 | 51 | 230 | 0.0 | 3.0 | 0.00 | 0.00 | 0.03 | 51 | 1007.9 |